[[{"header":{"parameterUnit":"m.s-1","parameterCategory":1,"la1":30.6,"la2":29.2853,"lo1":-89.7004,"lo2":-87.6739,"dy":0.0162,"dx":0.0183,"nx":112,"ny":82,"refTime":"2024-06-19T12:00:00:Z","depth":0,"parameterNumber":2,"parameterNumberName":"U-component_of_WINDS"},"data":[0.0,0.0,0.0,0.0,0.0,0.0,0.0,0.0,0.0,0.0,0.0,0.0,0.0,0.0,0.0,0.0,0.0,0.0,0.0,0.0,0.0,0.0,0.0,0.0,0.0,0.0,0.0,0.0,0.0,0.0,0.0,0.0,0.0,0.0,0.0,0.0,0.0,0.0,0.0,0.0,0.0,0.0,0.0,0.0,0.0,0.0,0.0,0.0,0.0,0.0,0.0,0.0,0.0,0.0,0.0,0.0,0.0,0.0,0.0,0.0,0.0,0.0,0.0,0.0,0.0,0.0,0.0,0.0,0.0,0.0,0.0,0.0,0.0,0.0,0.0,0.0,0.0,0.0,0.0,0.0,0.0,0.0,0.0,0.0,0.0,0.0,0.0,0.0,0.0,0.0,0.9984,1.0109,1.0461,1.0637,1.0534,1.0487,1.0222,0.968,0.0,0.0,0.0,0.0,0.0,0.0,0.0,0.0,0.0,0.0,0.0,0.0,0.0,0.0,0.0,0.0,0.0,0.0,0.0,0.0,0.0,0.0,0.0,0.0,0.0,0.0,0.0,0.0,0.0,0.0,0.0,0.0,0.0,0.0,0.0,0.0,0.0,0.0,0.0,0.0,0.0,0.0,0.0,0.0,0.0,0.0,0.0,0.0,0.0,0.0,0.0,0.0,0.0,0.0,0.0,0.0,0.0,0.0,0.0,0.0,0.0,0.0,0.0,0.0,0.0,0.0,0.0,0.0,0.0,0.0,0.0,0.0,0.0,0.0,0.0,0.0,0.0,0.0,0.0,0.0,0.0,0.0,0.0,0.0,0.0,0.0,0.0,0.0,0.0,0.0,0.0,0.0,0.0,0.0,0.0,0.0,0.0,0.0,0.0,0.0,0.0,0.0,0.0,0.0,1.0021,1.0529,1.0644,1.0677,1.065,1.046,1.0161,0.9778,0.0,0.0,0.0,0.0,0.0,0.0,0.0,0.0,0.0,0.0,0.0,0.0,0.0,0.0,0.0,0.0,0.0,0.0,0.0,0.0,0.0,0.0,0.0,0.0,0.0,0.0,0.0,0.0,0.0,0.0,0.0,0.0,0.0,0.0,0.0,0.0,0.0,0.0,0.0,0.0,0.0,0.0,0.0,0.0,0.0,0.0,0.0,0.0,0.0,0.0,0.0,0.0,0.0,0.0,0.0,0.0,0.0,0.0,0.0,0.0,0.0,0.0,0.0,0.0,0.0,0.0,0.0,0.0,0.0,0.0,0.0,0.0,0.0,0.0,0.0,0.0,0.0,0.0,0.0,0.0,0.0,0.0,0.0,0.0,0.0,0.0,0.0,0.0,0.0,0.0,0.0,0.0,0.0,0.0,0.0,0.0,0.0,0.0,0.0,0.0,0.0,0.0,0.0,0.9927,1.0109,1.063,1.0684,1.0684,1.0684,1.0521,1.0229,0.9812,0.9462,0.0,0.0,0.0,0.0,0.0,0.0,0.0,0.0,0.0,0.0,0.0,0.0,0.0,0.0,0.0,0.0,0.0,0.0,0.0,0.0,0.0,0.0,0.0,0.0,0.0,0.0,0.0,0.0,0.0,0.0,0.0,0.0,0.0,0.0,0.0,0.0,0.0,0.0,0.0,0.0,0.0,0.0,0.0,0.0,0.0,0.0,0.0,0.0,0.0,0.0,0.0,0.0,0.0,0.0,0.0,0.0,0.0,0.0,0.0,0.0,0.0,0.0,0.0,0.0,0.0,0.0,0.0,0.0,0.0,0.0,0.0,0.0,0.0,0.0,0.0,0.0,0.0,0.0,0.0,0.0,0.0,0.0,0.0,0.0,0.0,0.0,0.0,0.0,0.0,0.0,0.0,0.0,0.0,0.0,0.0,0.0,0.0,0.0,0.0,0.0,0.0,0.0,1.0163,1.0305,1.065,1.0684,1.0684,1.0684,1.048,1.0031,0.9318,0.9127,0.0,0.0,0.0,0.0,0.0,0.0,0.0,0.0,0.0,0.0,0.0,0.0,0.0,0.0,0.0,0.0,0.0,0.0,0.0,0.0,0.0,0.0,0.0,0.0,0.0,0.0,0.0,0.0,0.0,0.0,0.0,0.0,0.0,0.0,0.0,0.0,0.0,0.0,0.0,0.0,0.0,0.0,0.0,0.0,0.0,0.0,0.0,0.0,0.0,0.0,0.0,0.0,0.0,0.0,0.0,0.0,0.0,0.0,0.0,0.0,0.0,0.0,0.0,0.0,0.0,0.0,0.0,0.0,0.0,0.0,0.0,0.0,0.0,0.0,0.0,0.0,0.0,0.0,0.0,0.0,0.0,0.0,0.0,0.0,0.0,0.0,0.0,0.0,0.0,0.0,0.0,0.0,0.0,0.0,0.0,0.0,0.0,0.0,0.0,0.0,0.0,0.0,1.0299,1.065,1.0684,1.0684,1.0684,1.0684,1.0163,0.9239,0.7856,0.8248,0.0,0.0,0.0,0.0,0.0,0.0,0.0,0.0,0.0,0.0,0.0,0.0,0.0,0.0,0.0,0.0,0.0,0.0,0.0,0.0,0.0,0.0,0.0,0.0,0.0,0.0,0.0,0.0,0.0,0.0,0.0,0.0,0.0,0.0,0.0,0.0,0.0,0.0,0.0,0.0,0.0,0.0,0.0,0.0,0.0,0.0,0.0,0.0,0.0,0.0,0.0,0.0,0.0,0.0,0.0,0.0,0.0,0.0,0.0,0.0,0.0,0.0,0.0,0.0,0.0,0.0,0.0,0.0,0.0,0.0,0.0,0.0,0.0,0.0,0.0,0.0,0.0,0.0,0.0,0.0,0.0,0.0,0.0,0.0,0.0,0.0,0.0,0.0,0.0,0.0,0.0,0.0,0.0,0.0,0.0,0.0,0.0,0.0,0.0,0.0,0.0,0.0,1.0211,1.0514,1.0671,1.0684,1.0684,1.0684,0.9445,0.8375,0.7637,0.0,0.0,0.0,0.0,0.0,0.0,0.0,0.0,0.0,0.0,0.0,0.0,0.0,0.0,0.0,0.0,0.0,0.0,0.0,0.0,0.0,0.0,0.0,0.0,0.0,0.0,0.0,0.0,0.0,0.0,0.0,0.0,0.0,0.0,0.0,0.0,0.0,0.0,0.0,0.0,0.0,0.0,0.0,0.0,0.0,0.0,0.0,0.0,0.0,0.0,0.0,0.0,0.0,0.0,0.0,0.0,0.0,0.0,0.0,0.0,0.0,0.0,0.0,0.0,0.0,0.0,0.0,0.0,0.0,0.0,0.0,0.0,0.0,0.0,0.0,0.0,0.0,0.0,0.0,0.0,0.0,0.0,0.0,0.0,0.0,0.0,0.0,0.0,0.0,0.0,0.0,0.0,0.0,0.0,0.0,0.0,0.0,0.0,0.0,0.0,0.0,0.0,1.0042,1.0297,1.0514,1.0732,1.0206,0.9842,0.9842,0.8059,0.6679,0.6077,0.0,0.0,0.0,0.0,0.0,0.0,0.0,0.0,0.0,0.0,0.0,0.0,0.0,0.0,0.0,0.0,0.0,0.0,0.0,0.0,0.0,0.0,0.0,0.0,0.0,0.0,0.0,0.0,0.0,0.0,0.0,0.0,0.0,0.0,0.0,0.0,0.0,0.0,0.0,0.0,0.0,0.0,0.0,0.0,0.0,0.0,0.0,0.0,0.0,0.0,0.0,0.0,0.0,0.0,0.0,0.0,0.0,0.0,0.0,0.0,0.0,0.0,0.0,0.0,0.0,0.0,0.0,0.0,0.0,0.0,0.0,0.0,0.0,0.0,0.0,0.0,0.0,0.0,0.0,0.0,0.0,0.0,0.0,0.0,0.0,0.0,0.0,0.0,0.0,0.0,0.0,0.0,0.0,0.0,0.0,0.0,0.0,0.0,0.0,0.0,0.0,0.0,1.0274,1.0541,1.0752,1.0867,0.9153,0.7997,0.7964,0.5946,0.4124,0.0,0.0,0.0,0.0,0.0,0.0,0.0,0.0,0.0,0.0,0.0,0.0,0.0,0.0,0.0,0.0,0.0,0.0,0.0,0.0,0.0,0.0,0.0,0.0,0.0,0.0,0.0,0.0,0.0,0.0,0.0,0.0,0.0,0.0,0.0,0.0,0.0,0.0,0.0,0.0,0.0,0.0,0.0,0.0,0.0,0.0,0.0,0.0,0.0,0.0,0.0,0.0,0.0,0.0,0.0,0.0,0.0,0.0,0.0,0.0,0.0,0.0,0.0,0.0,0.0,0.0,0.0,0.0,0.0,0.0,0.0,0.0,0.0,0.0,0.0,0.0,0.0,0.0,0.0,0.0,0.0,0.0,0.0,0.0,0.0,0.0,0.0,0.0,0.0,0.0,0.0,0.0,0.0,0.0,0.0,0.0,0.0,0.0,0.0,0.0,0.0,0.0,0.0,1.0392,1.0819,1.053,0.9222,0.8565,0.7641,0.6288,0.441,0.3116,0.2731,0.0,0.0,0.0,0.0,0.0,0.0,0.0,0.0,0.0,0.0,0.0,0.0,0.0,0.0,0.0,0.0,0.0,0.0,0.0,0.0,0.0,0.0,0.0,0.0,0.0,0.0,0.0,0.0,0.0,0.0,0.0,0.0,0.0,0.0,0.0,0.0,0.0,0.0,0.0,0.0,0.0,0.0,0.0,0.0,0.0,0.0,0.0,0.0,0.0,0.0,0.0,0.0,0.0,0.0,0.0,0.0,0.0,0.0,0.0,0.0,0.0,0.0,0.0,0.0,0.0,0.0,0.0,0.0,0.0,0.0,0.0,0.0,0.0,0.0,0.0,0.0,0.0,0.0,0.0,0.0,0.0,0.0,0.0,0.0,0.0,0.0,0.0,0.0,0.0,0.0,0.0,0.0,0.0,0.0,0.0,0.0,0.0,0.0,0.0,0.0,0.0,0.0,0.9478,0.9792,0.933,0.7415,0.6533,0.5608,0.4418,0.2652,0.1613,0.1625,0.0,0.0,0.0,0.0,0.0,0.0,0.0,0.0,0.0,0.0,0.0,0.0,0.0,0.0,0.0,0.0,0.0,0.0,0.0,0.0,0.0,0.0,0.0,0.0,0.0,0.0,0.0,0.0,0.0,0.0,0.0,0.0,0.0,0.0,0.0,0.0,0.0,0.0,0.0,0.0,0.0,0.0,0.0,0.0,0.0,0.0,0.0,0.0,0.0,0.0,0.0,0.0,0.0,0.0,0.0,0.0,0.0,0.0,0.0,0.0,0.0,0.0,0.0,0.0,0.0,0.0,0.0,0.0,0.0,0.0,0.0,0.0,0.0,0.0,0.0,0.0,0.0,0.0,0.0,0.0,0.0,0.0,0.0,0.0,0.0,0.0,0.0,0.0,0.0,0.0,0.0,0.0,0.0,0.0,0.0,0.0,0.0,0.0,0.0,0.0,0.0,0.0,0.7982,0.7952,0.7358,0.5528,0.3778,0.265,0.248,0.0951,0.0,0.0,0.0,0.0,0.0,0.0,0.0,0.0,0.0,0.0,0.0,0.0,0.0,0.0,0.0,0.0,0.0,0.0,0.0,0.0,0.0,0.0,0.0,0.0,0.0,0.0,0.0,0.0,0.0,0.0,0.0,0.0,0.0,0.0,0.0,0.0,0.0,0.0,0.0,0.0,0.0,0.0,0.0,0.0,0.0,0.0,0.0,0.0,0.0,0.0,0.0,0.0,0.0,0.0,0.0,0.0,0.0,0.0,0.0,0.0,0.0,0.0,0.0,0.0,0.0,0.0,0.0,0.0,0.0,0.0,0.0,0.0,0.0,0.0,0.0,0.0,0.0,0.0,0.0,0.0,0.0,0.0,0.0,0.0,0.0,0.0,0.0,0.0,0.0,0.0,0.0,0.0,0.0,0.0,0.0,0.0,0.0,0.0,0.0,0.0,0.0,0.0,0.0,0.0,0.7976,0.701,0.5611,0.3669,0.3095,0.2236,0.0709,0.0208,0.0,0.0,0.0,0.0,0.0,0.0,0.0,0.0,0.0,0.0,0.0,0.0,0.0,0.0,0.0,0.0,0.0,0.0,0.0,0.0,0.0,0.0,0.0,0.0,0.0,0.0,0.0,0.0,0.0,0.0,0.0,0.0,0.0,0.0,0.0,0.0,0.0,0.0,0.0,0.0,0.0,0.0,0.0,0.0,0.0,0.0,0.0,0.0,0.0,0.0,0.0,0.0,0.0,0.0,0.0,0.0,0.0,0.0,0.0,0.0,0.0,0.0,0.0,0.0,0.0,0.0,0.0,0.0,0.0,0.0,0.0,0.0,0.0,0.0,0.0,0.0,0.0,0.0,0.0,0.0,0.0,0.0,0.0,0.0,0.0,0.0,0.0,0.0,0.0,0.0,0.0,0.0,0.0,0.0,0.0,0.0,0.0,0.0,0.0,0.0,0.0,0.0,0.0,0.0,0.5452,0.4815,0.3649,0.1719,0.1516,0.1096,0.0072,0.0,0.0,0.0,0.0,0.0,0.0,0.0,0.0,0.0,0.0,0.0,0.0,0.0,0.0,0.0,0.0,0.0,0.0,0.0,0.0,0.0,0.0,0.0,0.0,0.0,0.0,0.0,0.0,0.0,0.0,0.0,0.0,0.0,0.0,0.0,0.0,0.0,0.0,0.0,0.0,0.0,0.0,0.0,0.0,0.0,0.0,0.0,0.0,0.0,0.0,0.0,0.0,0.0,0.0,0.0,0.0,0.0,0.0,0.0,0.0,0.0,0.0,0.0,0.0,0.0,0.0,0.0,0.0,0.0,0.0,0.0,0.0,0.0,0.0,0.0,0.0,0.0,0.0,0.0,0.0,0.0,0.0,0.0,0.0,0.0,0.0,0.0,0.0,0.0,0.0376,0.1858,0.2416,0.3313,0.6039,0.0,0.0,0.0,0.0,0.0,0.0,0.0,0.0,0.0,0.0,0.0,0.2706,0.244,0.1795,0.019,0.0,0.0,0.0,0.0,0.0,0.0,0.0,0.0,0.0,0.0,0.0,0.0,0.0,0.0,0.0,0.0,0.0,0.0,0.0,0.0,0.0,0.0,0.0,0.0,0.0,0.0,0.0,0.0,0.0,0.0,0.0,0.0,0.0,0.0,0.0,0.0,0.0,0.0,0.0,0.0,-0.3604,-0.5593,0.0,0.0,0.0,0.0,0.0,0.0,0.0,0.0,0.0,0.0,0.0,0.0,0.0,0.0,0.0,0.0,0.0,0.0,0.0,0.0,0.0,0.0,0.0,0.0,0.0,0.0,0.0,0.0,0.0,0.0,0.0,0.0,0.0,0.0,0.0,0.0,0.0,0.0,0.0,0.0,0.0,0.0,0.0,0.0,0.0,0.0,0.0,0.0,0.0,0.0,0.0041,0.0287,0.1638,0.2974,0.342,0.4624,0.5597,0.5449,0.5236,0.5087,0.0,0.0,0.0,0.0,0.0,0.0,0.2671,0.1344,0.0265,0.0038,0.0,0.0,0.0,0.0,0.0,0.0,0.0,0.0,0.0,0.0,0.0,0.0,0.0,0.0,0.0,0.0,0.0,0.0,0.0,0.0,0.0,0.0,0.0,0.0,0.0,0.0,0.0,0.0,0.0,0.0,0.0,0.0,0.0,0.0,0.0,0.0,0.0,0.0,0.0,-0.3724,-0.2805,-0.2917,-0.2955,-0.3705,0.0,0.0,0.0,0.0,0.0,0.0,0.0,0.0,0.0,-0.1744,-0.0628,0.0,0.0,0.0,0.0,0.0,0.0,0.0,0.0,0.0,0.0,0.0,0.0,0.0,0.0,0.0,0.0,0.0,0.0,0.0,0.0,0.0,0.0,0.0,0.0,0.0,0.0,0.0,0.0,0.0,0.0,0.0,0.0,0.0,0.0,0.0,0.0,0.0,0.0,0.0,0.0644,0.1287,0.1287,0.1718,0.2738,0.4793,0.4553,0.3887,0.3613,0.2728,0.0,0.0,0.0,0.1099,0.117,0.0501,0.0,0.0,0.0,0.0,0.0,0.0,0.0,0.0,0.0,0.0,0.0,0.0,0.0,0.0,0.0,0.0,0.0,0.0,0.0,0.0,0.0,0.0,0.0,0.0,0.0,0.0,0.0,0.0,0.0,0.0,0.0,0.0,0.0,0.0,0.0,0.0,0.0,0.0,0.0,0.0,0.0,-0.312,-0.2504,-0.1794,-0.2461,-0.3186,0.0,0.0,0.0,0.0,0.0,0.0,-0.4495,-0.2997,-0.2193,-0.2282,-0.0811,0.0,0.0,0.0,0.0,0.0,0.0,0.0,0.0,0.0,0.0,0.0,0.0,0.0,0.0,0.0,0.0,0.0,0.0,0.0,0.0,0.0,0.0,0.0,0.0,0.0,0.0,0.0,0.0,0.0,0.0,0.0,0.0,0.0,0.0,0.0,0.0,0.0,0.0,0.0,0.0,0.0,0.0,0.0,0.0826,0.3611,0.3299,0.2412,0.2057,0.0876,0.0,0.0,0.0,0.0,0.0,0.0,0.0,0.0,0.0,0.0,0.0,0.0,0.0,0.0,0.0,0.0,0.0,0.0,0.0,0.0,0.0,0.0,0.0,0.0,0.0,0.0,0.0,0.0,0.0,0.0,0.0,0.0,0.0,0.0,0.0,0.0,0.0,0.0,0.0,0.0,0.0,0.0,0.0,0.0,0.0,0.0,0.0,0.0,0.0,-0.608,-0.4438,0.0,0.0,0.0,0.0,-0.3388,-0.3225,-0.2399,-0.0385,-0.0194,-0.0147,-0.0149,-0.005,0.0,0.0,0.0,0.0,0.0,0.0,0.0,0.0,0.0,0.0,0.0,0.0,0.0,0.0,0.0,0.0,0.0,0.0,0.0,0.0,0.0,0.0,0.0,0.0,0.0,0.0,0.0,0.0,0.0,0.0,0.0,0.0,0.0,0.0,0.0,0.0,0.0,0.0,0.0,0.0,0.0,0.0,0.0,0.0044,0.0257,0.0211,0.0166,0.012,0.0,0.0,0.0,0.0,0.0,0.0,0.0,0.0,0.0,0.0,0.0,0.0,0.0,0.0,0.0,0.0,0.0,0.0,0.0,0.0,0.0,0.0,0.0,0.0,0.0,0.0,0.0,0.0,0.0,0.0,0.0,0.0,0.0,0.0,0.0,0.0,0.0,0.0,0.0,0.0,0.0,0.0,0.0,0.0,0.0,0.0,0.0,0.0,0.0,0.0,-0.2279,-0.1643,0.0,-0.2238,-0.2255,-0.1949,-0.1157,-0.1117,-0.0787,-0.005,0.0,0.0,0.0,0.0,0.0,0.0,0.0,0.0,0.0,0.0,0.0,0.0,0.0,0.0,0.0,0.0,0.0,0.0,0.0,0.0,0.0,0.0,0.0,0.0,0.0,0.0,0.0,0.0,0.0,0.0,0.0,0.0,0.0,0.0,0.0,0.0,0.0,0.0,0.0,0.0,0.0,0.0,0.0,0.0,0.0,0.0,0.0,0.0,0.0,0.0,0.0,0.0,0.0,0.0,0.0,0.0,0.0,0.0,0.0,0.0,0.0,0.0,0.0,0.0,0.0,0.0,0.0,0.0,0.0,0.0,0.0,0.0,0.0,0.0,0.0,0.0,0.0,0.0,0.0,0.0,0.0,0.0,0.0,0.0,0.0,0.0,0.0,0.0,0.0,0.0,0.0,0.0,0.0,0.0,0.0,0.0,0.0,0.0,0.0,0.0,0.0,0.0,0.0,0.0,0.0,0.0,0.0,0.0,0.0,0.0,0.0,0.0,0.0,0.0,0.0,0.0,0.0,0.0,0.0,0.0,0.0,0.0,0.0,0.0,0.0,0.0,0.0,0.0,0.0,0.0,0.0,0.0,0.0,0.0,0.0,0.0,0.0,0.0,0.0,0.0,0.0,0.0,0.0,0.0,0.0,0.0,0.0,0.0,0.0,0.0,0.0,0.0,0.0,0.0,0.0,0.0,0.0,0.0,0.0,0.0,0.0,0.0,0.0,0.0,0.0,0.0,0.0,0.0,0.0,0.0,0.0,0.0,0.0,0.0,0.0,0.0,0.0,0.0,0.0,0.0,0.0,0.0,0.0,0.0,0.0,0.0,0.0,0.0,0.0,0.0,0.0,0.0,0.0,0.0,0.0,0.0,0.0,0.0,0.0,0.0,0.0,0.0,0.0,0.0,0.0,0.0,0.0,0.0,0.0,0.0,0.0,0.0,0.0,0.0,0.0,0.0,0.0,0.0,0.0,0.0,0.0,0.0,0.0,0.0,0.0,0.0,0.0,0.0,0.0,0.0,0.0,0.0,0.0,0.0,0.0,0.0,0.0,0.0,0.0,0.0,0.0,0.0,0.0,0.0,0.0,0.0,0.0,0.0,0.0,0.0,0.0,0.0,0.0,0.0,0.0,0.0,0.0,0.0,0.0,0.0,0.0,0.0,0.0,0.0,0.0,0.0,0.0,0.0,0.0,0.0,0.0,0.0,0.0,0.0,0.0,0.0,0.0,0.0,0.0,0.0,0.0,0.0,0.0,0.0,0.0,0.0,0.0,0.0,0.0,0.0,0.0,0.0,0.0,0.0,0.0,0.0,0.0,0.0,0.0,0.0,0.0,0.0,0.0,0.0,0.0,0.0,0.0,0.0,0.0,0.0,0.0,0.0,0.0,0.0,0.0,0.0,0.0,0.0,0.0,0.0,0.0,0.0,0.0,0.0,0.0,0.0,0.0,0.0,0.0,0.0,0.0,0.0,0.0,0.0,0.0,0.0,0.0,0.0,0.0,0.0,0.0,0.0,0.0,0.0,0.0,0.0,0.0,0.0,0.0,0.0,0.0,0.0,0.0,0.0,0.0,0.0,0.0,0.0,0.0,0.0,0.0,0.0,0.0,0.0,0.0,0.0,0.0,0.0,0.0,0.0,0.0,0.0,0.0,0.0,0.0,0.0,0.0,0.0,0.0,0.0,0.0,0.0,0.0,0.0,0.0,0.0,0.0,0.0,0.0,0.0,0.0,0.0,0.0,0.0,0.0,0.0,0.0,0.0,0.0,0.0,0.0,0.0,0.0,0.0,0.0,0.0,0.0,0.0,0.0,0.0,0.0,0.0,0.0,0.0,0.0,0.0,0.0,0.0,0.0,0.0,0.0,0.0,0.0,0.0,0.0,0.0,0.0,0.0,0.0,0.0,0.0,0.0,0.0,0.1046,0.1897,0.189,0.0778,0.0,0.0,0.0,0.0,0.0,0.0,0.0,0.0,0.0,0.0,0.0,0.1247,0.1978,0.1968,0.3257,0.3305,0.2009,0.1953,0.1287,0.0,0.0,0.0,0.0,0.0,0.0,0.0,0.0,0.0,0.0,0.0,0.0,0.0,0.0,0.0,0.0,0.0,0.0,0.0,0.0,0.0,0.0,0.0,0.0,0.0,0.0,0.0,0.0,0.0,0.0,0.0,0.0,0.0,0.0,0.0,0.0,0.0,0.0,0.0839,0.1572,0.1572,0.2449,0.0,0.318,0.1403,0.0,0.0,0.0,0.0,0.0,0.0,0.0,0.0,0.0,0.0,0.0,0.0,0.0,0.0,0.0,0.0,0.0,0.0,0.0,0.0,0.0,0.0,0.0,0.1527,0.0,0.0,0.2022,0.227,0.0,0.0,0.0,0.0,0.0,0.0,0.0,0.0,0.0,0.0,0.0,0.0,0.0,0.0,0.0,0.0,0.3281,0.5042,0.5075,0.2748,0.1086,0.1062,0.1069,0.1077,0.1093,0.075,0.0693,0.1099,0.0752,0.0694,0.1099,0.3749,0.0,0.0,0.0,0.7925,0.4766,0.5053,0.3677,0.0518,0.0863,0.1036,0.1037,0.1077,0.0843,0.0505,0.0552,0.0327,0.0,0.0,0.0,0.0,0.0,0.0,0.0,0.0,0.0,0.0,0.0,0.0,0.0,0.0,0.0,0.0,0.0,0.0,0.0,0.0,0.0,0.0,0.0,0.0,0.0,0.0,0.0239,0.0382,0.0047,0.2009,0.3804,0.38,0.5644,0.7253,0.7569,0.3618,0.0409,0.045,0.018,0.0,0.0,0.0,0.0,0.0,0.0,0.0,0.0,0.0,0.0,0.0,0.0258,0.0421,0.0416,0.0667,0.0797,0.0804,0.0805,0.1847,0.4014,0.4019,0.5196,0.7386,0.5104,0.424,0.0,0.0,0.0,0.0,0.0,0.0,0.0,0.0,0.0,0.0,0.0,0.0,0.0,0.0,0.0,0.6997,0.7724,0.8352,0.8435,0.8041,0.7654,0.7435,0.7622,0.7738,0.776,0.5468,0.5029,0.7735,0.5478,0.5127,0.7735,0.8504,0.8838,0.8787,0.9431,0.8142,0.4864,0.7406,0.6999,0.3821,0.6377,0.0,0.7585,0.7581,0.619,0.3788,0.3804,0.2367,0.0,0.0,0.0,0.0,0.0,0.0,0.0,0.0,0.0,0.0,0.0,0.0,0.0,0.0,0.0,0.0,0.0,0.0,0.0,0.0,0.0,0.0,0.0,0.0,0.0,0.0,0.1649,0.2619,0.0477,0.21,0.3914,0.3835,0.4206,0.5181,0.7237,0.5057,0.3046,0.3085,0.1307,0.0,0.0,0.0,0.0,0.0,0.0,0.0,0.0,0.0,0.0,0.0,0.1842,0.2911,0.2923,0.4714,0.5706,0.5711,0.5715,0.6024,0.6685,0.6649,0.6984,0.7551,0.694,0.7792,0.0,0.0,0.0,0.0,0.0,0.0,0.0,0.0,0.0,0.0,0.0,0.8645,0.871,0.0,0.8995,0.9061,1.0516,1.1658,1.1759,1.3207,1.3121,0.9859,0.9602,0.97,0.9721,0.8278,0.8083,0.9772,0.8304,0.8121,0.9832,1.1359,1.215,1.2166,1.3659,1.2951,0.9728,1.126,1.043,0.7256,0.8772,0.9479,0.9489,0.9447,0.7701,0.47,0.4697,0.2902,0.0,0.0,0.0,0.0,0.0,0.0,0.0,0.0,0.0,0.0,0.0,0.0,0.0,0.0,0.0,0.0,0.0,0.0,0.0,0.0,0.0,0.0,0.0,0.0,0.0,0.0,0.103,0.1623,0.0291,0.3101,0.5855,0.5703,0.7793,1.0,1.122,0.93,0.7164,0.5823,0.4523,0.3647,0.3583,0.3535,0.3588,0.3697,0.3592,0.3588,0.3697,0.3682,0.3714,0.3714,0.4832,0.5544,0.5586,0.6646,0.7294,0.7335,0.7328,0.7982,0.9297,0.9299,0.9968,1.132,1.132,1.1289,0.0,0.0,0.0,0.0,0.0,0.0,0.0,0.8875,0.912,0.9406,0.9548,0.9446,0.9082,0.9046,0.916,0.9233,1.1445,1.3359,1.4057,1.6454,1.6278,1.1367,1.0744,1.0985,1.1591,1.0532,1.0396,1.1799,1.1206,1.1146,1.188,1.424,1.5521,1.5521,1.7971,1.7773,1.4549,1.5146,1.3871,1.0734,1.0558,1.0516,1.0497,0.9716,0.7674,0.4694,0.4045,0.2365,0.0,0.0,0.0,0.0,0.0,0.0,0.0,0.0,0.0,0.0,0.0,0.0,0.0,0.0,0.0,0.0,0.0,0.0,0.0,0.0,0.0,0.0,0.0,0.0,0.0,0.0,0.0397,0.0796,0.0787,0.4506,0.7959,0.8321,1.1808,1.4793,1.5154,1.3497,1.1228,0.8559,0.7747,0.7391,0.718,0.7184,0.7252,0.7394,0.7263,0.7259,0.7415,0.7418,0.7418,0.7418,0.7872,0.8175,0.8285,0.8634,0.8862,0.8973,0.8978,0.9963,1.1995,1.1995,1.3049,1.5106,1.5215,1.4146,0.1192,0.1643,0.3474,0.3844,0.577,0.8323,0.0,1.241,1.2527,1.2316,1.2463,1.1848,0.8918,0.8593,0.8781,0.8799,0.9308,1.0805,1.3822,1.4681,1.4784,1.4249,1.4037,1.5133,1.8072,1.3172,1.2256,1.8159,1.6032,1.5713,1.8635,1.9126,1.9297,1.9297,1.9488,1.8077,1.4732,1.7452,1.7205,1.3966,1.3842,1.3793,1.369,1.0718,0.7694,0.452,0.1759,0.0334,0.0,0.0,0.0,0.0,0.0,0.0,0.0,0.0,0.0,0.0,0.0,0.0,0.0,0.0,0.0,0.0,0.0,0.0,0.0,0.0,0.0,0.0,0.0,0.0,0.0,0.0,0.1799,0.3551,0.354,0.5907,0.8629,1.0891,1.1711,1.2749,1.5003,1.5019,1.3918,1.1341,0.9015,0.7513,0.7394,0.7488,0.7506,0.7405,0.7492,0.753,0.7586,0.7586,0.7586,0.7586,0.9606,1.0759,1.0815,1.2786,1.3893,1.3906,1.3906,1.4172,1.4752,1.4752,1.5039,1.5519,1.5533,1.5362,0.2679,0.4134,0.6522,0.8136,0.961,1.142,1.4513,1.3934,1.2874,1.3042,1.1748,1.0215,0.9047,0.894,0.9015,0.911,0.9262,0.9935,1.1371,1.1678,1.18,1.1825,1.0115,1.0176,1.3513,1.1372,1.0965,1.3863,1.4666,1.5609,1.6992,1.8931,1.9963,1.9875,1.982,1.9135,1.777,1.7022,1.5982,1.4587,1.2529,1.1584,1.1539,1.0067,0.7685,0.4548,0.1364,0.0,0.0,0.0,0.0,0.0,0.0,0.0,0.0,0.0,0.0,0.0,0.0,0.0,0.0,0.0,0.0,0.0,0.0,0.0,0.0,0.0,0.0,0.0,0.0,0.0,0.0,0.0,0.0862,0.2076,0.3643,0.613,0.8765,1.1295,1.3051,1.4412,1.5361,1.5493,1.5091,1.4019,1.2719,1.1846,1.1681,1.1708,1.1719,1.163,1.1819,1.1862,1.1746,1.1851,1.1889,1.1889,1.2869,1.3496,1.3655,1.4448,1.4957,1.508,1.5133,1.5194,1.5316,1.5404,1.5465,1.5593,1.5723,1.573,0.4827,0.6842,0.9154,1.0509,1.2315,1.4123,1.5586,1.4321,1.2722,1.2295,0.9772,0.7433,0.6755,0.666,0.6696,0.6813,0.6905,0.7292,0.819,0.8369,0.8477,0.846,0.6349,0.5507,0.6954,0.7902,0.8894,0.9884,1.3125,1.5083,1.504,1.8324,2.0119,1.9997,1.9963,1.9484,1.8563,1.606,1.4276,1.3316,0.9896,0.8279,0.8265,0.7236,0.5586,0.329,0.0973,0.0,0.0,0.0,0.0,0.0,0.0,0.0,0.0,0.0,0.0,0.0,0.0,0.0,0.0,0.0,0.0,0.0,0.0,0.0,0.0,0.0,0.0,0.0,0.0,0.0,0.0,0.0,0.0617,0.1894,0.4554,0.7264,0.9961,1.2544,1.4595,1.5928,1.5778,1.5723,1.5634,1.5593,1.5364,1.5086,1.4889,1.4828,1.4789,1.487,1.5025,1.5045,1.489,1.5065,1.5153,1.5153,1.5153,1.5248,1.5466,1.5269,1.5255,1.5466,1.5472,1.5493,1.5533,1.5642,1.5716,1.5764,1.5866,1.5969,0.7624,0.9552,1.0983,0.8901,1.2673,1.6227,1.3852,1.3445,1.277,0.9915,0.6902,0.3898,0.0861,0.0308,0.0308,0.0308,0.031,0.1434,0.4604,0.5066,0.507,0.5021,0.4934,0.3676,0.0623,0.3155,0.6354,0.9563,1.3156,1.522,1.5167,1.8472,2.0315,2.0315,2.0173,1.8517,1.5156,1.5027,1.3299,0.9887,0.6634,0.5021,0.4925,0.174,0.0237,0.0118,0.0058,0.0,0.0,0.0,0.0,0.0,0.0,0.0,0.0,0.0,0.0,0.0,0.0,0.0,0.0,0.0,0.0,0.0,0.0,0.0,0.0,0.0,0.0,0.0,0.0,0.0,0.0,0.0,0.2072,0.4797,0.7349,1.013,1.2975,1.5631,1.6128,1.6076,1.6069,1.5996,1.5798,1.5614,1.558,1.5506,1.5208,1.5052,1.5072,1.5357,1.5398,1.5398,1.5391,1.5479,1.5566,1.5566,1.5566,1.5573,1.5587,1.5573,1.5573,1.5587,1.5587,1.5703,1.5888,1.5894,1.5976,1.6069,1.6076,1.6076,1.0369,1.1202,1.1793,1.1252,1.2861,1.442,1.3757,1.2058,1.0441,0.9503,0.5228,0.1242,0.0178,0.0,0.0,0.0,0.0,0.0373,0.1505,0.163,0.1621,0.1667,0.1661,0.1229,0.0123,0.0991,0.2118,0.32,0.8655,1.1872,1.1745,1.7287,2.0374,2.0329,2.0275,1.8586,1.519,1.2858,0.9937,0.6491,0.3235,0.167,0.1597,0.0484,0.0,0.0,0.0,0.0,0.0,0.0,0.0,0.0,0.0,0.0,0.0,0.0,0.0,0.0,0.0,0.0,0.0,0.0,0.0,0.0,0.0,0.0,0.0,0.0,0.0,0.0,0.0,0.0,0.0,0.0,0.2144,0.4944,0.7622,1.0432,1.3207,1.5933,1.6408,1.6374,1.6374,1.6334,1.6212,1.5967,1.5715,1.5553,1.5499,1.5445,1.5452,1.5506,1.5512,1.5512,1.5512,1.556,1.5593,1.5593,1.5593,1.5683,1.5778,1.5689,1.5683,1.5778,1.5784,1.5854,1.5901,1.6003,1.6078,1.6083,1.6083,1.6083,1.3375,1.3587,1.3273,1.155,1.2267,1.2905,1.1,0.8998,0.7616,0.7709,0.3599,0.0,0.0,0.0,0.0,0.0,0.0,0.0,0.0,0.0,0.0,0.0,0.0,0.0,0.0,0.0,0.0,0.0,0.6414,1.0264,1.0136,1.6698,2.0442,2.0397,2.0397,1.8711,1.5298,1.182,0.7741,0.3137,0.0997,0.0,0.0,0.0,0.0,0.0,0.0,0.0,0.0,0.0,0.0,0.0,0.0,0.0,0.0,0.0,0.0,0.0,0.0,0.0,0.0,0.0,0.0,0.0,0.0,0.0,0.0,0.0,0.0,0.0,0.0,0.0,0.0266,0.1269,0.369,0.6457,0.9198,1.2033,1.4523,1.6239,1.6554,1.6554,1.6554,1.6506,1.6456,1.6266,1.6076,1.585,1.5737,1.5621,1.5607,1.571,1.5764,1.5798,1.5798,1.5893,1.5884,1.583,1.583,1.592,1.6064,1.5872,1.5866,1.6064,1.601,1.601,1.6015,1.6062,1.611,1.6164,1.611,1.6083,1.6101,1.6103,1.4689,0.9716,1.0736,1.1528,0.595,0.4725,0.4681,0.4699,0.2204,-0.0058,-0.0174,-0.0232,-0.0295,-0.0429,-0.0493,-0.0437,-0.0257,-0.0255,-0.019,0.0,0.0,0.0,0.0,0.0,0.0,0.0,0.6378,1.0271,1.0271,1.6806,2.0476,2.0476,2.0476,1.8874,1.544,1.1809,0.6627,0.0,0.0,0.0,0.0,0.0,0.0,0.0,0.0,0.0,0.0,0.0,0.0,0.0,0.0,0.0,0.0,0.0,0.0,0.0,0.0,0.0,0.0,0.0,0.0,0.0,0.0,0.0,0.0,0.0,0.0,0.0,0.0,0.0,0.0692,0.3509,0.6425,0.9259,1.1905,1.4712,1.6709,1.6709,1.6709,1.6709,1.6709,1.6581,1.653,1.653,1.6473,1.6368,1.599,1.5771,1.5737,1.5922,1.6015,1.6103,1.6103,1.6361,1.6463,1.6327,1.632,1.632,1.632,1.6185,1.6171,1.632,1.6171,1.6164,1.6307,1.6157,1.6157,1.6293,1.6151,1.6083,1.3388,1.0516,0.7,0.5662,0.6163,0.6532,0.5034,0.4721,0.4677,0.4693,0.2196,-0.0616,-0.2721,-0.3322,-0.4268,-0.6613,-0.7173,-0.6462,-0.4103,-0.3785,-0.288,-0.0319,0.0,0.0,0.0,0.0,0.0,0.0,0.6393,1.0271,1.0271,1.6806,2.0476,2.0476,2.0476,1.886,1.5431,0.9424,0.4256,0.0,0.0,0.0,0.0,0.0,0.0,0.0,0.0,0.0,0.0,0.0,0.0,0.0,0.0,0.0,0.0,0.0,0.0,0.0,0.0,0.0,0.0,0.0,0.0,0.0,0.0,0.0,0.0,0.0,0.0,0.0,0.0,0.0,0.0692,0.3509,0.6425,0.9273,1.205,1.4901,1.6924,1.6924,1.6924,1.6924,1.6924,1.6795,1.6642,1.6642,1.654,1.6483,1.6368,1.632,1.6307,1.6347,1.6388,1.6408,1.6408,1.6476,1.6503,1.6469,1.6469,1.6469,1.6469,1.6429,1.6429,1.6469,1.6327,1.6273,1.6307,1.6157,1.6103,1.6137,1.6096,1.6083,1.0724,0.8553,0.5866,0.4651,0.4487,0.4245,0.293,0.2619,0.2636,0.2639,0.1205,-0.0874,-0.3673,-0.4461,-0.5723,-0.8807,-0.9571,-0.9212,-0.7611,-0.6059,-0.4397,-0.2585,-0.0968,0.0,0.0,0.0,0.0,0.0,0.6414,1.0271,1.0271,1.6806,2.0476,2.0476,2.0476,1.8155,1.3222,0.9303,0.4891,0.0,0.0,0.0,0.0,0.0,0.0,0.0,0.0,0.0,0.0,0.0,0.0,0.0,0.0,0.0,0.0,0.0,0.0,0.0,0.0,0.0,0.0,0.0,0.0,0.0,0.0,0.0,0.0,0.0,0.0,0.0,0.0,0.0,0.0692,0.3509,0.6425,0.9281,1.2084,1.4949,1.6978,1.6978,1.6978,1.6978,1.6978,1.691,1.6849,1.6849,1.6775,1.672,1.672,1.6605,1.6524,1.6524,1.6527,1.6567,1.6567,1.6686,1.6693,1.6574,1.6567,1.6567,1.6567,1.6506,1.6551,1.6567,1.6415,1.6341,1.6402,1.6185,1.6151,1.6273,1.6212,1.6218,0.8035,0.7843,0.6963,0.4525,0.3875,0.3208,0.0568,0.0,0.0,0.0,0.0,-0.0966,-0.4198,-0.5038,-0.6369,-0.9884,-1.0736,-1.0866,-1.0348,-0.7682,-0.5465,-0.4792,-0.1898,0.0,0.0,0.0,0.0,0.0,0.5981,0.982,1.0271,1.6806,2.0476,2.0476,2.0476,1.7194,1.0399,1.032,0.6841,0.0,0.0,0.0,0.0,0.0,0.0,0.0,0.0,0.0,0.0,0.0,0.0,0.0,0.0,0.0,0.0,0.0,0.0,0.0,0.0,0.0,0.0,0.0,0.0,0.0,0.0,0.0,0.0,0.0,0.0,0.0,0.0,0.0,0.0692,0.3509,0.6107,0.8805,1.2031,1.4949,1.6978,1.6978,1.6978,1.6978,1.6978,1.6978,1.6978,1.6978,1.6978,1.6978,1.6978,1.6748,1.6585,1.6585,1.6648,1.673,1.673,1.6904,1.6924,1.6736,1.673,1.673,1.673,1.6653,1.6646,1.673,1.651,1.6429,1.6551,1.6273,1.6273,1.6517,1.6395,1.6402,0.5135,0.3386,0.1407,0.0888,0.0759,0.063,0.0113,0.0,0.0,0.0,0.0,-0.1583,-0.6775,-0.7988,-1.0057,-1.5956,-1.7185,-1.5702,-1.0832,-0.9593,-0.7135,-0.1577,-0.0393,0.0,0.0,0.0,0.0,0.0,0.3734,0.7264,1.0143,1.6806,2.0476,2.0476,2.0476,1.7194,1.0399,1.032,0.6858,0.0,0.0,0.0,0.0,0.0,0.0,0.0,0.0,0.0,0.0,0.0,0.0,0.0,0.0,0.0,0.0,0.0,0.0,0.0,0.0,0.0,0.0,0.0,0.0,0.0,0.0,0.0,0.0,0.0,0.0,0.0,0.0,0.0,0.0692,0.3509,0.457,0.6372,1.1552,1.4949,1.6978,1.6978,1.6978,1.6978,1.6978,1.6978,1.6978,1.6978,1.6978,1.6978,1.6978,1.6937,1.6904,1.6904,1.6924,1.6937,1.6937,1.6965,1.6971,1.6944,1.6937,1.6937,1.6937,1.6917,1.691,1.6937,1.6761,1.6635,1.6655,1.653,1.6469,1.6524,1.6497,1.6497,0.2157,0.1125,0.0,0.0,0.0,0.0,0.0,0.0,0.0,0.0,0.0,-0.1303,-0.5482,-0.6494,-0.8242,-1.2895,-1.3979,-1.3269,-1.059,-0.8603,-0.6291,-0.3147,0.0392,0.267,0.267,0.2661,0.265,0.2641,0.4185,0.5851,0.752,1.4117,1.8676,2.0412,1.8746,1.5403,1.0335,0.8516,0.5044,0.0,0.0,0.0,0.0,0.0,0.0,0.0,0.0,0.0,0.0,0.0,0.0,0.0,0.0,0.0,0.0,0.0,0.0,0.0,0.0,0.0,0.0,0.0,0.0,0.0,0.0,0.0,0.0,0.0,0.0,0.0,0.0,0.0,0.032,0.1703,0.432,0.8119,1.3821,1.6122,1.7066,1.6992,1.6978,1.6978,1.6978,1.6978,1.6978,1.6978,1.6978,1.6978,1.6978,1.6978,1.6978,1.6978,1.6978,1.6978,1.6978,1.6978,1.6978,1.6978,1.6978,1.6978,1.6978,1.6978,1.6978,1.6978,1.6777,1.6696,1.6696,1.6547,1.6564,1.6588,1.6588,1.6686,0.0,0.0,0.0,0.0,0.0,0.0,0.0,0.0,0.0,0.0,0.0,-0.0878,-0.3681,-0.4421,-0.5583,-0.8678,-0.8917,-0.8536,-0.8181,-0.5172,-0.2762,-0.2148,0.28,0.6241,0.6241,0.5563,0.5092,0.5083,0.4443,0.4633,0.611,1.2071,1.6301,1.8224,1.6429,1.3418,0.9247,0.6495,0.3403,0.0,0.0,0.0,0.0,0.0,0.0,0.0,0.0,0.0,0.0,0.0,0.0,0.0,0.0,0.0,0.0,0.0,0.0,0.0,0.0,0.0,0.0,0.0,0.0,0.0,0.0,0.0,0.0,0.0,0.0,0.0,0.0,0.0,0.016,0.0801,0.4928,1.0108,1.5236,1.6783,1.7161,1.7046,1.7005,1.6978,1.6978,1.6978,1.6978,1.6978,1.6978,1.6978,1.6978,1.6978,1.6978,1.6978,1.6978,1.6978,1.6978,1.6978,1.6978,1.6978,1.6978,1.6978,1.6978,1.6978,1.6978,1.6978,1.6863,1.675,1.675,1.668,1.668,1.675,1.675,1.6863,0.0,0.0,0.0,0.0,0.0,0.0,0.0,0.0,0.0,0.0,0.0,-0.0871,-0.3676,-0.4223,-0.5347,-0.8661,-0.6951,-0.4208,-0.1369,0.182,0.5017,0.8196,0.9311,0.9798,0.9798,0.6947,0.5122,0.5088,0.2255,0.3219,0.9506,1.3354,1.4117,1.136,1.3925,1.2263,0.5658,0.5276,0.3412,0.0,0.0,0.0,0.0,0.0,0.0,0.0,0.0,0.0,0.0,0.0,0.0,0.0,0.0,0.0,0.0,0.0,0.0,0.0,0.0,0.0,0.0,0.0,0.0,0.0,0.0,0.0,0.0,0.0,0.0,0.0,0.0,0.0,0.0694,0.3435,0.6451,0.9587,1.286,1.5504,1.7188,1.7175,1.7066,1.6978,1.6978,1.6978,1.6978,1.6978,1.6978,1.6978,1.6978,1.6978,1.6978,1.6978,1.6978,1.6978,1.6978,1.6978,1.6978,1.6978,1.6978,1.6978,1.6978,1.6978,1.6978,1.6978,1.6965,1.6958,1.6958,1.6944,1.6944,1.6958,1.6958,1.6965,0.0,0.0,0.0,0.0,0.0,0.0,0.0,0.0,0.0,0.0,0.0,0.0153,0.0663,0.0818,0.098,0.1259,0.2383,0.3686,0.4958,0.6257,0.7721,0.9455,1.158,1.2268,1.0502,0.9029,0.6512,0.2319,0.0774,0.1225,0.3927,0.7328,0.957,1.0271,0.957,0.7908,0.5147,0.3028,0.1354,0.0,0.0,0.0,0.0,0.0,0.0,0.0,0.0,0.0,0.0,0.0,0.0,0.0,0.0,0.0,0.0,0.0,0.0,0.0,0.0,0.0,0.0,0.0,0.0,0.0,0.0,0.0,0.0,0.0,0.0,0.0,0.0,0.1278,0.3308,0.6428,0.9312,1.2212,1.5222,1.6688,1.7412,1.7229,1.7222,1.7216,1.7121,1.7182,1.7243,1.7243,1.7168,1.7141,1.7236,1.7168,1.7107,1.7107,1.7032,1.6978,1.6978,1.706,1.7107,1.7107,1.7195,1.7202,1.7114,1.7107,1.7066,1.6985,1.6978,1.6978,1.6978,1.6978,1.6124,1.4423,1.4392,1.4386,0.0,0.0,0.0,0.0,0.0,0.0,0.0,0.0,0.0,0.0,0.0662,0.1826,0.367,0.4794,0.6029,0.7911,0.9087,0.9768,0.9947,1.0852,1.1369,1.0946,1.3119,1.3549,1.0595,0.9337,0.6302,0.0452,0.0,0.0,0.0,0.2255,0.4697,0.7199,0.5851,0.4633,0.3605,0.1225,0.0,0.0,0.0,0.0,0.0,0.0,0.0,0.0,0.0,0.0,0.0,0.0,0.0,0.0,0.0,0.0,0.0,0.0,0.0,0.0,0.0,0.0,0.0,0.0,0.0,0.0,0.0,0.0,0.0,0.0,0.0,0.0,0.0,0.1497,0.3753,0.6859,0.9832,1.2758,1.5736,1.7007,1.7534,1.7372,1.7378,1.7385,1.7277,1.7351,1.7419,1.7419,1.7331,1.7297,1.7405,1.7324,1.7256,1.7256,1.7127,1.7039,1.7039,1.7134,1.7209,1.7256,1.7358,1.7372,1.7263,1.7256,1.7216,1.7114,1.7114,1.7114,1.7114,1.7114,1.6088,1.4103,1.4086,1.4058,0.0,0.0,0.0,0.0,0.0,0.0,0.0,0.0,0.0,0.0,0.2198,0.4133,0.4031,0.6322,0.8205,0.8052,1.06,1.2811,1.3269,1.6162,1.7263,1.4777,1.4614,1.3555,1.0608,0.717,0.3734,0.0258,0.0,0.0,0.0,0.0065,0.0065,0.0129,0.3348,0.3476,0.0065,0.0,0.0,0.0,0.0,0.0,0.0,0.0,0.0,0.0,0.0,0.0,0.0,0.0,0.0,0.0,0.0,0.0,0.0,0.0,0.0,0.0,0.0,0.0,0.0,0.0,0.0,0.0,0.0,0.0,0.0,0.0,0.0,0.0,0.0,0.0,0.0813,0.385,0.6785,0.9771,1.281,1.5625,1.7595,1.7595,1.7467,1.7419,1.7419,1.7419,1.7419,1.7419,1.7419,1.7419,1.7419,1.7419,1.7419,1.7419,1.7283,1.7188,1.7188,1.7195,1.7256,1.7405,1.7419,1.7419,1.7419,1.7419,1.7419,1.7412,1.7412,1.7412,1.7412,1.7412,1.7365,1.7358,1.7365,1.7284,0.0,0.0,0.0,0.0,0.0,0.0,0.0,0.0,0.0,0.0,0.0716,0.1892,0.3674,0.4844,0.6078,0.7889,0.9108,0.9875,1.0038,1.1055,1.1542,1.1053,0.9293,0.778,0.6808,0.3654,0.116,0.0065,0.0,0.0,0.0,0.0,0.0,0.0,0.1032,0.1096,0.0,0.0,0.0,0.0,0.0,0.0,0.0,0.0,0.0,0.0,0.0,0.0,0.0,0.0,0.0,0.0,0.0,0.0,0.0,0.0,0.0,0.0,0.0,0.0,0.0,0.0,0.0,0.0,0.0,0.0,0.0,0.0,0.0,0.0485,0.2549,0.4508,0.6747,0.9843,1.2783,1.5133,1.6212,1.7164,1.7772,1.7615,1.7684,1.7684,1.7541,1.765,1.7724,1.7724,1.7629,1.7616,1.7704,1.7629,1.7521,1.7521,1.748,1.746,1.7358,1.7351,1.7412,1.7514,1.767,1.7684,1.7527,1.7521,1.7473,1.7419,1.7419,1.7419,1.7419,1.7419,1.6382,1.4366,1.4384,1.4322,0.0,0.0,0.0,0.0,0.0,0.0,0.0,0.0,0.0,0.0,0.0868,0.2098,0.3691,0.4968,0.6306,0.7915,0.8315,0.8442,0.8499,0.8596,0.8427,0.7635,0.4969,0.3184,0.3191,0.1221,0.0,0.0,0.0,0.0,0.0,0.0,0.0,0.0,0.0,0.0,0.0,0.0,0.0,0.0,0.0,0.0,0.0,0.0,0.0,0.0,0.0,0.0,0.0,0.0,0.0,0.0,0.0,0.0,0.0,0.0,0.0,0.0,0.0,0.0,0.0,0.0,0.0,0.0219,0.1366,0.1681,0.1722,0.1677,0.2491,0.3795,0.5685,0.744,0.9262,1.1218,1.3898,1.6077,1.6157,1.708,1.7846,1.7758,1.7806,1.7881,1.7738,1.7812,1.7915,1.7915,1.7792,1.7758,1.7902,1.7792,1.7683,1.7683,1.7629,1.7575,1.7589,1.7534,1.7514,1.7717,1.7812,1.7826,1.7738,1.7683,1.7684,1.7589,1.7589,1.7589,1.7589,1.7534,1.6544,1.4828,1.4658,1.4553,0.0,0.0,0.0,0.0,0.0,0.0,0.0,0.0,0.0,0.0,0.2081,0.3887,0.3716,0.5888,0.7648,0.7454,0.7613,0.7756,0.7896,0.7996,0.7115,0.4495,0.1735,0.0,0.0,0.0,0.0,0.0,0.0,0.0,0.0,0.0,0.0,0.0,0.0,0.0,0.0,0.0,0.0,0.0,0.0,0.0,0.0,0.0,0.0,0.0,0.0,0.0,0.0,0.0,0.0,0.0,0.0,0.0,0.0,0.0,0.0,0.0,0.0,0.0,0.0,0.0,0.0,0.0548,0.3336,0.4311,0.4525,0.4747,0.6812,0.895,0.9188,0.9217,0.929,0.9476,1.1668,1.3727,1.3727,1.5905,1.786,1.7632,1.7577,1.7577,1.7577,1.7577,1.7632,1.786,1.7915,1.7915,1.7915,1.7915,1.7915,1.7915,1.7738,1.7717,1.7902,1.7738,1.7704,1.7902,1.7915,1.7915,1.7915,1.7915,1.7915,1.7915,1.7915,1.7915,1.7915,1.7717,1.7717,1.7846,1.7419,1.7372,0.0,0.0,0.0,0.0,0.0,0.0,0.0,0.0,0.0,0.0,0.0506,0.0965,0.0922,0.1496,0.1926,0.19,0.1918,0.1941,0.1976,0.2014,0.181,0.1131,0.0446,0.0,0.0,0.0,0.0,0.0,0.0,0.0,0.0,0.0,0.0,0.0,0.0,0.0,0.0,0.0,0.0,0.0,0.0,0.0,0.0,0.0,0.0,0.0,0.0,0.0,0.0,0.0,0.0,0.0,0.0,0.0,0.0,0.0,0.0,0.0,0.0,0.0,0.0,0.0,0.0,0.0112,0.0836,0.2647,0.4967,0.7247,0.8352,0.9411,1.1767,1.2352,1.2911,1.5229,1.6342,1.6852,1.6852,1.7405,1.7197,1.4902,1.4448,1.4448,1.4448,1.4448,1.5229,1.7577,1.7915,1.7915,1.7915,1.7915,1.7915,1.7915,1.7881,1.7826,1.7915,1.7738,1.7704,1.7902,1.7915,1.7915,1.7915,1.7915,1.7915,1.7915,1.7915,1.7915,1.7915,1.7826,1.7772,1.7649,1.7534,1.746,0.0,0.0,0.0,0.0,0.0,0.0,0.0,0.0,0.0,0.0,0.0,0.0,0.0,0.0,0.0,0.0,0.0,0.0,0.0,0.0,0.0,0.0,0.0,0.0,0.0,0.0,0.0,0.0,0.0,0.0,0.0,0.0,0.0,0.0,0.0,0.0,0.0,0.0,0.0,0.0,0.0,0.0,0.0,0.0,0.0,0.0,0.0,0.0,0.0,0.0,0.0,0.0,0.0,0.0,0.0,0.0,0.0,0.0,0.0,0.0,0.0,0.0,0.0,0.0281,0.1626,0.3227,0.5132,0.8082,0.9923,1.1652,1.4658,1.545,1.5905,1.7522,1.7915,1.7915,1.7915,1.6797,1.534,1.3727,1.2274,1.133,1.133,1.133,1.2385,1.5395,1.585,1.6342,1.7749,1.7915,1.7915,1.7915,1.7915,1.7915,1.7915,1.7792,1.7772,1.786,1.7935,1.7935,1.7915,1.7935,1.7935,1.7915,1.7915,1.7915,1.7915,1.7792,1.7758,1.7738,1.7609,1.7575,0.0,0.0,0.0,0.0,0.0,0.0,0.0,0.0,0.0,0.0,0.0,0.0,0.0,0.0,0.0,0.0,0.0,0.0,0.0,0.0,0.0,0.0,0.0,0.0,0.0,0.0,0.0,0.0,0.0,0.0,0.0,0.0,0.0,0.0,0.0,0.0,0.0,0.0,0.0,0.0,0.0,0.0,0.0,0.0,0.0,0.0,0.0,0.0,0.0,0.0,0.0,0.0,0.0,0.0,0.0,0.0,0.0,0.0,0.0,0.0,0.0,0.0,0.0,0.045,0.3035,0.3818,0.4429,0.7384,1.0392,1.3278,1.585,1.6514,1.6631,1.708,1.7197,1.7197,1.7197,1.5223,1.3107,1.2219,0.9991,0.8212,0.8212,0.8212,0.9268,1.2274,1.2723,1.3616,1.6188,1.6514,1.6514,1.6514,1.6914,1.7197,1.7197,1.7632,1.7915,1.7915,1.7989,1.8002,1.7915,1.7989,1.8002,1.7915,1.7915,1.7915,1.7915,1.7738,1.7738,1.786,1.7602,1.7623,0.0,0.0,0.0,0.0,0.0,0.0,0.0,0.0,0.0,0.0,0.0,0.0,0.0,0.0,0.0,0.0,0.0,0.0,0.0,0.0,0.0,0.0,0.0,0.0,0.0,0.0,0.0,0.0,0.0,0.0,0.0,0.0,0.0,0.0,0.0,0.0,0.0,0.0,0.0,0.0,0.0,0.0,0.0,0.0,0.0,0.0,0.0,0.0,0.0,0.0,0.0,0.0,0.0,0.0,0.0,0.0,0.0,0.0,0.0,0.0,0.0,0.0,0.0,0.0114,0.0572,0.0684,0.1303,0.4353,0.73,0.9709,1.0158,1.0269,1.0937,1.35,1.411,1.411,1.411,1.3727,1.1937,0.6874,0.5478,0.5199,0.5199,0.5199,0.6202,0.9156,0.9598,0.9765,1.0214,1.0269,1.0269,1.0269,1.2557,1.411,1.411,1.6458,1.7915,1.7915,1.7936,1.7936,1.7915,1.7936,1.7936,1.7915,1.7915,1.7915,1.7915,1.7846,1.7846,1.7915,1.7868,1.7826,0.0,0.0,0.0,0.0,0.0,0.0,0.0,0.0,0.0,0.0,0.0,0.0,0.0,0.0,0.0,0.0,0.0,0.0,0.0,0.0,0.0,0.0,0.0,0.0,0.0,0.0,0.0,0.0,0.0,0.0,0.0,0.0,0.0,0.0,0.0,0.0,0.0,0.0,0.0,0.0,0.0,0.0,0.0,0.0,0.0,0.0,0.0,0.0,0.0,0.0,0.0,0.0,0.0,0.0,0.0,0.0,0.0,0.0,0.0,0.0,0.0,0.0,0.0,0.0,0.0,0.0,0.0286,0.1658,0.424,0.6874,0.8485,0.8878,0.9222,1.066,1.0956,1.0956,1.0956,0.972,0.7752,0.5035,0.3191,0.2073,0.2073,0.2073,0.3079,0.6095,0.6536,0.7097,0.8707,0.8878,0.8878,0.8878,1.0158,1.1612,1.3278,1.4675,1.6163,1.7926,1.7914,1.7956,1.7989,1.7914,1.7915,1.7915,1.7915,1.7915,1.7915,1.7915,1.7915,1.7915,1.7915,1.7915,0.0,0.0,0.0,0.0,0.0,0.0,0.0,0.0,0.0,0.0,0.0,0.0,0.0,0.0,0.0,0.0,0.0,0.0,0.0,0.0,0.0,0.0,0.0,0.0,0.0,0.0,0.0,0.0,0.0,0.0,0.0,0.0,0.0,0.0,0.0,0.0,0.0,0.0,0.0,0.0,0.0,0.0,0.0,0.0,0.0,0.0,0.0,0.0,0.0,0.0,0.0,0.0,0.0,0.0,0.0,0.0,0.0,0.0,0.0,0.0,0.0,0.0,0.0,0.0,0.0,0.0,0.0,0.0,0.1653,0.3942,0.6237,0.6844,0.702,0.7697,0.7885,0.7876,0.7861,0.6115,0.4296,0.3596,0.1572,0.0,0.0,0.0,0.0785,0.3079,0.3471,0.4251,0.6536,0.6818,0.6818,0.6818,0.7426,0.9382,1.3107,1.3389,1.472,1.7862,1.7935,1.797,1.8036,1.7935,1.7915,1.7915,1.7915,1.7936,1.797,1.7936,1.7936,1.797,1.7936,1.7915,0.0,0.0,0.0,0.0,0.0,0.0,0.0,0.0,0.0,0.0,0.0,0.0,0.0,0.0,0.0,0.0,0.0,0.0,0.0,0.0,0.0,0.0,0.0,0.0,0.0,0.0,0.0,0.0,0.0,0.0,0.0,0.0,0.0,0.0,0.0,0.0,0.0,0.0,0.0,0.0,0.0,0.0,0.0,0.0,0.0,0.0,0.0,0.0,0.0,0.0,0.0,0.0,0.0,0.0,0.0,0.0,0.0,0.0,0.0,0.0,0.0,0.0,0.0,0.0,0.0,0.0,0.0,0.0,0.0173,0.0345,0.0574,0.0628,0.1364,0.4175,0.4814,0.4805,0.4821,0.4646,0.3686,0.0851,0.0169,0.0,0.0,0.0,0.0056,0.0281,0.0337,0.0393,0.0617,0.0617,0.0617,0.0617,0.3135,0.7153,1.2935,1.3389,1.4675,1.7708,1.7915,1.7915,1.7936,1.7915,1.7915,1.7915,1.7915,1.7935,1.8077,1.7935,1.7935,1.8077,1.7935,1.7915,0.0,0.0,0.0,0.0,0.0,0.0,0.0,0.0,0.0,0.0,0.0,0.0,0.0,0.0,0.0,0.0,0.0,0.0,0.0,0.0,0.0,0.0,0.0,0.0,0.0,0.0,0.0,0.0,0.0,0.0,0.0,0.0,0.0,0.0,0.0,0.0,0.0,0.0,0.0,0.0,0.0,0.0,0.0,0.0,0.0,0.0,0.0,0.0,0.0,0.0,0.0,0.0,0.0,0.0,0.0,0.0,0.0,0.0,0.0,0.0,0.0,0.0,0.0,0.0,0.0,0.0,0.0,0.0,0.0,0.0,0.0,0.0,0.0287,0.1444,0.1679,0.1677,0.1729,0.1728,0.1378,0.0228,0.0,0.0,0.0,0.0,0.0,0.0,0.0,0.0,0.0,0.0,0.0,0.0,0.2689,0.6151,1.0269,1.233,1.4675,1.7694,1.7915,1.7915,1.7915,1.8004,1.7968,1.7915,1.8057,1.8124,1.8091,1.8036,1.8036,1.8091,1.8036,1.8002,0.0,0.0,0.0,0.0,0.0,0.0,0.0,0.0,0.0,0.0,0.0,0.0,0.0,0.0,0.0,0.0,0.0,0.0,0.0,0.0,0.0,0.0,0.0,0.0,0.0,0.0,0.0,0.0,0.0,0.0,0.0,0.0,0.0,0.0,0.0,0.0,0.0,0.0,0.0,0.0,0.0,0.0,0.0,0.0,0.0,0.0,0.0,0.0,0.0,0.0,0.0,0.0,0.0,0.0,0.0,0.0,0.0,0.0,0.0,0.0,0.0,0.0,0.0,0.0,0.0,0.0,0.0,0.0,0.0,0.0,0.0,0.0,0.0,0.0,0.0,0.0,0.0,0.0,0.0,0.0,0.0,0.0,0.0,0.0,0.0,0.0,0.0,0.0,0.0,0.0,0.0,0.0,0.1849,0.4644,0.8596,1.0766,1.3687,1.7706,1.7901,1.7936,1.7935,1.8036,1.8057,1.8002,1.8213,1.8287,1.8233,1.8179,1.8179,1.8233,1.8179,1.8158,0.0,0.0,0.0,0.0,0.0,0.0,-0.005,0.0,0.0,0.0,0.0,0.0,0.0,0.0,0.0,0.0,0.0,0.0,0.0,0.0,0.0,0.0,0.0,0.0,0.0,0.0,0.0,0.0,0.0,0.0,0.0,0.0,0.0,0.0,0.0,0.0,0.0,0.0,0.0,0.0,0.0,0.0,0.0,0.0,0.0,0.0,0.0,0.0,0.0,0.0,0.0,0.0,0.0,0.0,0.0,0.0,0.0,0.0,0.0,0.0,0.0,0.0,0.0,0.0,0.0,0.0,0.0,0.0,0.0,0.0,0.0,0.0,0.0,0.0,0.0,0.0,0.0,0.0,0.0,0.0,0.0,0.0,0.0,0.0,0.0,0.0,0.0,0.0,0.0,0.0,0.0,0.0,0.0,0.2409,0.837,0.8878,1.1532,1.7685,1.7948,1.7935,1.8091,1.8091,1.8158,1.8321,1.8321,1.8389,1.8474,1.8389,1.8389,1.8474,1.8332,1.8321,0.0,0.0,0.0,0.0,0.0,-0.05,-0.2504,-0.1408,0.0,0.0,0.0,0.0,0.0,0.0,0.0,0.0,0.0,0.0,0.0,0.0,0.0,0.0,0.0,0.0,0.0,0.0,0.0,0.0,0.0,0.0,0.0,0.0,0.0,0.0,0.0,0.0,0.0,0.0,0.0,0.0,0.0,0.0,0.0,0.0,0.0,0.0,0.0,0.0,0.0,0.0,0.0,0.0,0.0,0.0,0.0,0.0,0.0,0.0,0.0,0.0,0.0,0.0,0.0,0.0,0.0,0.0,0.0,0.0,0.0,0.0,0.0,0.0,0.0,0.0,0.0,0.0,0.0,0.0,0.0,0.0,0.0,0.0,0.0,0.0,0.0,0.0,0.0,0.0,0.0,0.0,0.0,0.0,0.0,0.157,0.5478,0.7708,1.0639,1.4674,1.6864,1.8091,1.8247,1.8247,1.8267,1.8321,1.8531,1.8599,1.8474,1.844,1.844,1.8474,1.844,1.8464,0.0,0.0,0.0,0.0,0.0,-0.0715,-0.3557,-0.2872,-0.1677,-0.1772,-0.0833,0.0,0.0,0.0,0.0,0.0,0.0,0.0,0.0,0.0,0.0,0.0,0.0,0.0,0.0,0.0,0.0,0.0,0.0,0.0,0.0,0.0,0.0,0.0,0.0,0.0,0.0,0.0,0.0,0.0,0.0,0.0,0.0,0.0,0.0,0.0,0.0,0.0,0.0,0.0,0.0,0.0,0.0,0.0,0.0,0.0,0.0,0.0,0.0,0.0,0.0,0.0,0.0,0.0,0.0,0.0,0.0,0.0,0.0,0.0,0.0,0.0,0.0,0.0,0.0,0.0,0.0,0.0,0.0,0.0,0.0,0.0,0.0,0.0,0.0,0.0,0.0,0.0,0.0,0.0,0.0,0.0,0.0,0.1687,0.5871,0.7875,1.0264,1.3398,1.5281,1.5813,1.4828,1.7111,1.8423,1.8498,1.8674,1.8766,1.862,1.862,1.862,1.862,1.862,1.7953,0.0,0.0,0.0,0.0,-0.0201,-0.1036,-0.3637,-0.4228,-0.4275,-0.4454,-0.2283,-0.0334,-0.0056,0.0,0.0,0.0,0.0,0.0,0.0,0.0,0.0,0.0,0.0,0.0,0.0,0.0,0.0,0.0,0.0,0.0,0.0,0.0,0.0,0.0,0.0,0.0,0.0,0.0,0.0,0.0,0.0,0.0,0.0,0.0,0.0,0.0,0.0,0.0,0.0,0.0,0.0,0.0,0.0,0.0,0.0,0.0,0.0,0.0,0.0,0.0,0.0,0.0,0.0,0.0,0.0,0.0,0.0,0.0,0.0,0.0,0.0,0.0,0.0,0.0,0.0,0.0,0.0,0.0,0.0,0.0,0.0,0.0,0.0,0.0,0.0,0.0,0.0,0.0,0.0,0.0,0.0,0.0,0.0,0.2208,0.7616,0.834,0.9749,1.2588,1.2904,1.1952,0.9489,1.5,1.819,1.8342,1.8639,1.882,1.882,1.882,1.882,1.8762,1.8523,1.6862,0.0,0.0,0.0,0.0,-0.1647,-0.3494,-0.4238,-0.4335,-0.421,-0.4257,-0.3859,-0.282,-0.0453,0.0,0.0,0.0,0.0,0.0,0.0,0.0,0.0,0.0,0.0,0.0,0.0,0.0,0.0,0.0,0.0,0.0,0.0,0.0,0.0,0.0,0.0,0.0,0.0,0.0,0.0,0.0,0.0,0.0,0.0,0.0,0.0,0.0,0.0,0.0,0.0,0.0,0.0,0.0,0.0,0.0,0.0,0.0,0.0,0.0,0.0,0.0,0.0,0.0,0.0,0.0,0.0,0.0,0.0,0.0,0.0,0.0,0.0,0.0,0.0,0.0,0.0,0.0,0.0,0.0,0.0,0.0,0.0,0.0,0.0,0.0,0.0,0.0,0.0,0.0,0.0,0.0,0.0,0.0,0.0,0.0516,0.1829,0.411,0.5785,0.6588,0.8824,0.9906,0.9428,1.2851,1.4926,1.5116,1.7523,1.882,1.882,1.882,1.882,1.8762,1.629,1.4745,0.0,0.0,0.0,0.0,-0.2106,-0.4227,-0.4334,-0.5417,-0.5926,-0.4525,-0.3193,-0.1876,-0.0285,0.0,0.0,0.0,0.0,0.0,0.0,0.0,0.0,0.0,0.0,0.0,0.0,0.0,0.0,0.0,0.0,0.0,0.0,0.0,0.0,0.0,0.0,0.0,0.0,0.0,0.0,0.0,0.0,0.0,0.0,0.0,0.0,0.0,0.0,0.0,0.0,0.0,0.0,0.0,0.0,0.0,0.0,0.0,0.0,0.0,0.0,0.0,0.0,0.0,0.0,0.0,0.0,0.0,0.0,0.0,0.0,0.0,0.0,0.0,0.0,0.0,0.0,0.0,0.0,0.0,0.0,0.0,0.0,0.0,0.0,0.0,0.0,0.0,0.0,0.0,0.0,0.0,0.0,0.0,0.0,0.0578,0.2012,0.3617,0.4548,0.4583,0.6088,0.6345,0.4929,0.7797,1.0891,1.4062,1.5709,1.7284,1.882,1.882,1.8001,1.6523,1.4877,1.2451,0.0,0.0,0.0,0.0,-0.1764,-0.3488,-0.3463,-0.5413,-0.6497,-0.3969,-0.2019,-0.0628,-0.0115,0.0,0.0,0.0,0.0,0.0,0.0,0.0,0.0,0.0,0.0,0.0,0.0,0.0,0.0,0.0,0.0,0.0,0.0,0.0,0.0,0.0,0.0,0.0,0.0,0.0,0.0,0.0,0.0,0.0,0.0,0.0,0.0,0.0,0.0,0.0,0.0,0.0,0.0,0.0,0.0,0.0,0.0,0.0,0.0,0.0,0.0,0.0,0.0,0.0,0.0,0.0,0.0,0.0,0.0,0.0,0.0,0.0,0.0,0.0,0.0,0.0,0.0,0.0,0.0,0.0,0.0,0.0,0.0,0.0,0.0,0.0,0.0,0.0,0.0,0.0,0.0,0.0,0.0,0.0,0.0,0.0988,0.3517,0.3745,0.3699,0.3723,0.3726,0.263,0.0118,0.2486,0.6618,1.2366,1.3552,1.5662,1.882,1.8226,1.6645,1.4062,1.3008,0.9695,0.0,0.0,0.0,0.0,-0.0265,-0.0587,-0.0586,-0.0864,-0.104,-0.0657,-0.2358,-0.3102,-0.0464,0.0,0.0,0.0,0.0,0.0,0.0,0.0,0.0,0.0,0.0,0.0,0.0,0.0,0.0,0.0,0.0,0.0,0.0,0.0,0.0,0.0,0.0,0.0,0.0,0.0,0.0,0.0,0.0,0.0,0.0,0.0,0.0,0.0,0.0,0.0,0.0,0.0,0.0,0.0,0.0,0.0,0.0,0.0,0.0,0.0,0.0,0.0,0.0,0.0,0.0,0.0,0.0,0.0,0.0,0.0,0.0,0.0,0.0,0.0,0.0,0.0,0.0,0.0,0.0,0.0,0.0,0.0,0.0,0.0,0.0,0.0,0.0,0.0,0.0,0.0,0.0,0.0,0.0,0.0,0.0,0.0176,0.0587,0.0587,0.0587,0.0588,0.0588,0.0412,0.0,0.0413,0.2296,0.5869,1.1331,1.563,1.8762,1.6052,1.4533,1.3941,0.8502,0.5517,0.0,0.0,0.0,0.0,0.0,0.0,0.0,0.0,0.0,0.0,-0.1066,-0.1599,-0.0229,0.0,0.0,0.0,0.0,0.0,0.0,0.0,0.0,0.0,0.0,0.0,0.0,0.0,0.0,0.0,0.0,0.0,0.0,0.0,0.0,0.0,0.0,0.0,0.0,0.0,0.0,0.0,0.0,0.0,0.0,0.0,0.0,0.0,0.0,0.0,0.0,0.0,0.0,0.0,0.0,0.0,0.0,0.0,0.0,0.0,0.0,0.0,0.0,0.0,0.0,0.0,0.0,0.0,0.0,0.0,0.0,0.0,0.0,0.0,0.0,0.0,0.0,0.0,0.0,0.0,0.0,0.0,0.0,0.0,0.0,0.0,0.0,0.0,0.0,0.0,0.0,0.0,0.0,0.0,0.0,0.0,0.0,0.0,0.0,0.0,0.0,0.0,0.0,0.0,0.1478,0.4639,0.9179,1.2997,1.6168,1.4761,1.3183,1.1366,0.6804,0.3761,0.0,0.0,0.0,0.0,0.0,0.0,0.0,0.0,0.0,0.0,0.0,0.0,0.0,0.0,0.0,0.0,0.0,0.0,0.0,0.0,0.0,0.0,0.0,0.0,0.0,0.0,0.0,0.0,0.0,0.0,0.0,0.0,0.0,0.0,0.0,0.0,0.0,0.0,0.0,0.0,0.0,0.0,0.0,0.0,0.0,0.0,0.0,0.0,0.0,0.0,0.0,0.0,0.0,0.0,0.0,0.0,0.0,0.0,0.0,0.0,0.0,0.0,0.0,0.0,0.0,0.0,0.0,0.0,0.0,0.0,0.0,0.0,0.0,0.0,0.0,0.0,0.0,0.0,0.0,0.0,0.0,0.0,0.0,0.0,0.0,0.0,0.0,0.0,0.0,0.0,0.0,0.0,0.0,0.0,0.0,0.0,0.0,0.0,0.0,0.0,0.0,0.0,0.1125,0.3467,0.6628,1.0136,1.412,1.3329,1.1683,0.9321,0.698,0.4228,0.0,0.0,0.0,0.0,0.0,0.0,0.0,0.0,0.0,0.0,0.0,0.0,0.0,0.0,0.0,0.0,0.0,0.0,0.0,0.0,0.0,0.0,0.0,0.0,0.0,0.0,0.0,0.0,0.0,0.0,0.0,0.0,0.0,0.0,0.0,0.0,0.0,0.0,0.0,0.0,0.0,0.0,0.0,0.0,0.0,0.0,0.0,0.0,0.0,0.0,0.0,0.0,0.0,0.0,0.0,0.0,0.0,0.0,0.0,0.0,0.0,0.0,0.0,0.0,0.0,0.0,0.0,0.0,0.0,0.0,0.0,0.0,0.0,0.0,0.0,0.0,0.0,0.0,0.0,0.0,0.0,0.0,0.0,0.0,0.0,0.0,0.0,0.0,0.0,0.0,0.0,0.0,0.0,0.0,0.0,0.0,0.0,0.0,0.0,0.0,0.0,0.0,0.0059,0.0236,0.3349,0.7972,1.4062,1.1103,0.9569,0.9379,0.9259,0.7451,0.0,0.0,0.0,0.0,0.0,0.0,0.0,0.0,0.0,0.0,0.0,0.0,0.0,0.0,0.0,0.0,0.0,0.0,0.0,0.0,0.0,0.0,0.0,-0.0855,-0.2936,-0.1225,-0.0858,-0.2997,-0.1164,0.0,0.0,0.0,0.0,0.0,0.0,0.0,0.0,0.0,0.0,0.0,0.0,0.0,0.0,0.0,0.0,0.0,0.0,0.0,0.0,0.0,0.0,0.0,0.0,0.0,0.0,0.0,0.0,0.0,0.0,0.0,0.0,0.0,0.0,0.0,0.0,0.0,0.0,0.0,0.0,0.0,0.0,0.0,0.0,0.0,0.0,0.0,0.0,0.0,0.0,0.0,0.0,0.0,0.0,0.0,0.0,0.0,0.0,0.0,0.0,0.0,0.0,0.0,0.0,0.0,0.0,0.0,0.0,0.0,0.0,0.0,0.0,0.0,0.0942,0.2996,0.4133,0.6782,1.1078,0.9938,1.0458,1.2358,1.0315,0.8798,0.0,0.0,0.0,0.0,0.0,0.0,0.0,0.0,0.0,0.0,0.0,0.0,0.0,0.0,0.0,0.0,0.0,0.0,0.0,0.0,0.0,0.0,0.0,-0.0852,-0.3055,-0.1283,-0.1343,-0.4641,-0.1836,-0.0491,-0.1602,-0.0623,0.0,0.0,0.0,0.0,0.0,0.0,0.0,0.0,0.0,0.0,0.0,0.0,0.0,0.0,0.0,0.0,0.0,0.0,0.0,0.0,0.0,0.0,0.0,0.0,0.0,0.0,0.0,0.0,0.0,0.0,0.0,0.0,0.0,0.0,0.0,0.0,0.0,0.0,0.0,0.0,0.0,0.0,0.0,0.0,0.0,0.0,0.0,0.0,0.0,0.0,0.0,0.0,0.0,0.0,0.0,0.0,0.0,0.0,0.0,0.0,0.0,0.0,0.0,0.0,0.0,0.0,0.0,0.0,0.0,0.0,0.1005,0.307,0.4152,0.6279,0.9472,1.0469,1.206,1.4113,1.3081,1.2532,0.0,0.0,0.0,0.0,0.0,0.0,0.0,0.0,0.0,0.0,0.0,0.0,0.0,0.0,0.0,0.0,0.0,0.0,0.0,0.0,0.0,0.0,0.0,-0.0061,-0.0123,-0.0061,-0.1406,-0.4798,-0.1972,-0.1602,-0.4859,-0.1938,-0.0127,0.0,0.0,0.0,0.0,0.0,0.0,0.0,0.0,0.0,0.0,0.0,0.0,0.0,0.0,0.0,0.0,0.0,0.0,0.0,0.0,0.0,0.0,0.0,0.0,0.0,0.0,0.0,0.0,0.0,0.0,0.0,0.0,0.0,0.0,0.0,0.0,0.0,0.0,0.0,0.0,0.0,0.0,0.0,0.0,0.0,0.0,0.0,0.0,0.0,0.0,0.0,0.0,0.0,0.0,0.0,0.0,0.0,0.0,0.0,0.0,0.0,0.0,0.0,0.0,0.0,0.0,0.0,0.0,0.0,0.006,0.0119,0.3152,0.635,0.9721,1.2687,1.423,1.453,1.7424,1.8841,0.0,0.0,0.0,0.0,0.0,0.0,0.0,0.0,0.0,0.0,0.0,0.0,0.0,0.0,0.0,0.0,0.0,0.0,0.0,0.0,0.0,0.0,0.0,-0.0919,-0.3299,-0.1411,-0.2336,-0.8045,-0.5413,-0.4982,-0.829,-0.5302,-0.2474,-0.0064,0.0,0.0,0.0,0.0,0.0,0.0,0.0,0.0,0.0,0.0,0.0,0.0,0.0,0.0,0.0,0.0,0.0,0.0,0.0,0.0,0.0,0.0,0.0,0.0,0.0,0.0,0.0,0.0,0.0,0.0,0.0,0.0,0.0,0.0,0.0,0.0,0.0,0.0,0.0,0.0,0.0,0.0,0.0,0.0,0.0,0.0,0.0,0.0,0.0,0.0,0.0,0.0,0.0,0.0,0.0,0.0,0.0,0.0,0.0,0.0,0.0,0.0,0.0,0.0,0.0,0.0,0.0,0.0,0.1072,0.3331,0.4256,0.7414,1.288,1.3773,1.5464,1.7885,1.8581,1.8993,0.0,0.0,0.0,0.0,0.0,0.0,0.0,0.0,0.0,0.0,0.0,0.0,0.0,0.0,0.0,0.0,0.0,0.0,0.0,0.0,0.0,0.0,0.0,-0.0734,-0.2693,-0.2391,-0.417,-0.9393,-0.8045,-0.7209,-0.7749,-0.5964,-0.3435,-0.0129,0.0,0.0,0.0,0.0,0.0,0.0,0.0,0.0,0.0,0.0,0.0,0.0,0.0,0.0,0.0,0.0,0.0,0.0,0.0,0.0,0.0,0.0,0.0,0.0,0.0,0.0,0.0,0.0,0.0,0.0,0.0,0.0,0.0,0.0,0.0,0.0,0.0,0.0,0.0,0.0,0.0,0.0,0.0,0.0,0.0,0.0,0.0,0.0,0.0,0.0,0.0,0.0,0.0,0.0,0.0,0.0,0.0,0.0,0.0,0.0,0.0,0.0,0.0,0.0,0.0,0.0,0.0,0.0,0.0841,0.2691,0.4044,0.7803,1.4187,1.4213,1.5932,1.9115,1.9149,1.9183,0.0,0.0,0.0,0.0,0.0,0.0,0.0,0.0,0.0,0.0,0.0,0.0,0.0,0.0,0.0,0.0,0.0,0.0,0.0,0.0,0.0,0.0,0.0,0.0,0.0,-0.2997,-0.6288,-0.9577,-1.0142,-0.8909,-0.5597,-0.5196,-0.3514,-0.0129,0.0,0.0,0.0,0.0,0.0,0.0,0.0,0.0,0.0,0.0,0.0,0.0,0.0,0.0,0.0,0.0,0.0,0.0,0.0,0.0,0.0,0.0,0.0,0.0,0.0,0.0,0.0,0.0,0.0,0.0,0.0,0.0,0.0,0.0,0.0,0.0,0.0,0.0,0.0,0.0,0.0,0.0,0.0,0.0,0.0,0.0,0.0,0.0,0.0,0.0,0.0,0.0,0.0,0.0,0.0,0.0,0.0,0.0,0.0,0.0,0.0,0.0,0.0,0.0,0.0,0.0,0.0,0.0,0.0,0.0,0.3124,0.7524,1.3258,1.3856,1.5828,1.904,1.9305,1.9359,0.0,0.0,0.0,0.0,0.0,0.0,0.0,0.0,0.0,0.0,0.0,0.0,0.0,0.0,0.0,0.0,0.0,0.0,0.0,0.0,0.0,0.0,0.0,0.0,0.0,-0.2992,-0.626,-0.9577,-1.228,-1.2315,-0.9041,-0.6333,-0.345,-0.0129,0.0,0.0,0.0,0.0,0.0,0.0,0.0,0.0,0.0,0.0,0.0,0.0,0.0,0.0,0.0,0.0,0.0,0.0,0.0,0.0,0.0,0.0,0.0,0.0,0.0,0.0,0.0,0.0,0.0,0.0,0.0,0.0,0.0,0.0,0.0,0.0,0.0,0.0,0.0,0.0,0.0,0.0,0.0,0.0,0.0,0.0,0.0,0.0,0.0,0.0,0.0,0.0,0.0,0.0,0.0,0.0,0.0,0.0,0.0,0.0,0.0,0.0,0.0,0.0,0.0,0.0,0.0,0.0,0.0,0.0,0.3093,0.5305,0.6587,1.1958,1.6224,1.9345,1.9393,1.9413,-0.0369,0.0,0.0,0.0,0.0,0.0,0.0,0.0,0.0,0.0,0.0,0.0,0.0,0.0,0.0,0.0,0.0,0.0,0.0,0.0,0.0,0.0,0.0,0.0,0.0,-0.4445,-0.8698,-1.1968,-1.3863,-1.2657,-0.7646,-0.5841,-0.3444,-0.0128,0.0,0.0,0.0,0.0,0.0,0.0,0.0,0.0,0.0,0.0,0.0,0.0,0.0,0.0,0.0,0.0,0.0,0.0,0.0,0.0,0.0,0.0,0.0,0.0,0.0,0.0,0.0,0.0,0.0,0.0,0.0,0.0,0.0,0.0,0.0,0.0,0.0,0.0,0.0,0.0,0.0,0.0,0.0,0.0,0.0,0.0,0.0,0.0,0.0,0.0,0.0,0.0,0.0,0.0,0.0,0.0,0.0,0.0,0.0,0.0,0.0,0.0,0.0,0.0,0.0,0.0,0.0,0.0,0.0,0.0,0.1543,0.3114,0.4698,0.8159,1.2266,1.702,1.8613,1.9374,-0.2215,-0.1607,-0.1617,-0.156,-0.152,-0.1526,0.0,0.0,0.0,-0.0826,-0.0776,-0.0633,-0.01,0.0,0.0,0.0,0.0,0.0,0.0,0.0,0.0,0.0,0.0,0.0,0.0,-0.5902,-1.0791,-1.3574,-1.3863,-1.1268,-0.5192,-0.439,-0.287,-0.0064,0.0,0.0,0.0,0.0,0.0,0.0,0.0,0.0,0.0,0.0,0.0,0.0,0.0,0.0,0.0,0.0,0.0,0.0,0.0,0.0,0.0,0.0,0.0,0.0,0.0,0.0,0.0,0.0,0.0,0.0,0.0,0.0,0.0,0.0,0.0,0.0,0.0,0.0,0.0,0.0,0.0,0.0,0.0,0.0,0.0,0.0,0.0,0.0,0.0,0.0,0.0,0.0,0.0,0.0,0.0,0.0,0.0,0.0,0.0,0.0,0.0,0.0,0.0,0.0,0.0,0.0,0.0,0.0,0.0,0.0,0.0,0.1236,0.382,0.4559,0.8219,1.4572,1.7205,1.878,-0.7495,-0.7428,-0.7487,-0.715,-0.7092,-0.7014,-0.6799,0.0,-0.6259,-0.3838,0.0,-0.2796,-0.0433,0.0,0.0,0.0,0.0,0.0,0.0,0.0,0.0,0.0,0.0,0.0,0.0,-0.5635,-0.9552,-1.0322,-1.0051,-0.8407,-0.5048,-0.2164,-0.0384,0.0,0.0,0.0,0.0,0.0,0.0,0.0,0.0,0.0,0.0,0.0,0.0,0.0,0.0,0.0,0.0,0.0,0.0,0.0,0.0,0.0,0.0,0.0,0.0,0.0,0.0,0.0,0.0,0.0,0.0,0.0,0.0,0.0,0.0,0.0,0.0,0.0,0.0,0.0,0.0,0.0,0.0,0.0,0.0,0.0,0.0,0.0,0.0,0.0,0.0,0.0,0.0,0.0,0.0,0.0,0.0,0.0,0.0,0.0,0.0,0.0,0.0,0.0,0.0,0.0,0.0,0.0,0.0,0.0,0.0,0.0,0.0,0.0177,0.053,0.3496,0.8219,1.4513,1.4886,1.6578,-0.8742,-0.835,-0.83,-0.8054,-0.7993,-0.7937,-0.7674,-0.7653,-0.6942,-0.4345,0.0,0.0,0.0,0.0,0.0,0.0,0.0,0.0,0.0,0.0,0.0,0.0,0.0,-0.0735,-0.2677,-0.5158,-0.6798,-0.6952,-0.6818,-0.5326,-0.2227,-0.0751,0.0,0.0,0.0,-0.0936,-0.2849,-0.2849,-0.383,-0.566,-0.3754,-0.2833,-0.2771,-0.0863,0.0,0.0,0.0,0.0,0.0,0.0,0.0,0.0,0.0,0.0,0.0,0.0,0.0,0.0,0.0,0.0,0.0,0.0,0.0,0.0,0.0,0.0,0.0,0.0,0.0,0.0,0.0,0.0,0.0,0.0,0.0,0.0,0.0,0.0,0.0,0.0,0.0,0.0,0.0,0.0,0.0,0.0,0.0,0.0,0.0,0.0,0.0,0.0,0.0,0.0,0.0,0.0,0.0,0.0,0.0,0.0,0.0,0.0,0.0,0.0,0.0,0.0,0.0,0.1359,0.4444,0.8945,1.0788,1.2395,-1.1141,-1.0631,-1.0626,-1.0316,-1.0236,-1.0131,-0.9742,-0.9768,-0.912,-0.6432,-0.5409,0.0,0.0,0.0,0.0,0.0,0.0,0.0,0.0,0.0,0.0,0.0,0.0,-0.0938,-0.3315,-0.428,-0.4379,-0.3603,-0.4262,-0.3315,-0.0183,0.0,0.0,0.0,-0.0867,-0.247,-0.4859,-0.5777,-0.7435,-0.9764,-0.7373,-0.5777,-0.4798,-0.2404,-0.0863,0.0,0.0,0.0,0.0,0.0,0.0,0.0,0.0,0.0,0.0,0.0,0.0,0.0,0.0,0.0,0.0,0.0,0.0,0.0,0.0,0.0,0.0,0.0,0.0,0.0,0.0,0.0,0.0,0.0,0.0,0.0,0.0,0.0,0.0,0.0,0.0,0.0,0.0,0.0,0.0,0.0,0.0,0.0,0.0,0.0,0.0,0.0,0.0,0.0,0.0,0.0,0.0,0.0,0.0,0.0,0.0,0.0,0.0,0.0,0.0,0.0,0.0,0.0,0.1239,0.3615,0.6807,0.8759,-1.6502,-1.6569,-1.6594,-1.5968,-1.5821,-1.5627,-1.4912,-1.5227,-1.4773,-1.1794,-0.9533,-0.7255,-0.4422,-0.1739,0.0,0.0,0.0,0.0,0.0,0.0,0.0,0.0,0.0,-0.0054,-0.0166,-0.2619,-0.3067,-0.034,-0.2705,-0.2959,-0.0177,0.0,0.0,0.0,-0.3091,-0.4774,-0.4921,-0.8045,-0.9703,-0.9825,-0.9703,-0.7984,-0.4921,-0.4798,-0.3018,0.0,0.0,0.0,0.0,0.0,0.0,0.0,0.0,0.0,0.0,0.0,0.0,0.0,0.0,0.0,0.0,0.0,0.0,0.0,0.0,0.0,0.0,0.0,0.0,0.0,0.0,0.0,0.0,0.0,0.0,0.0,0.0,0.0,0.0,0.0,0.0,0.0,0.0,0.0,0.0,0.0,0.0,0.0,0.0,0.0,0.0,0.0,0.0,0.0,0.0,0.0,0.0,0.0,0.0,0.0,0.0,0.0,0.0,0.0,0.0,0.0,0.0,0.0,0.0059,0.0236,0.3411,0.654,-1.689,-1.7005,-1.7026,-1.6625,-1.63,-1.5934,-1.5384,-1.5493,-1.4877,-1.1968,-0.9741,-0.7405,-0.4538,-0.1792,0.0,0.0,0.0,0.0,0.0,0.0,0.0,0.0,0.0,0.0,0.0,-0.0856,-0.1021,-0.0054,-0.0882,-0.1011,-0.0057,0.0,0.0,0.0,-0.1101,-0.2702,-0.4859,-0.5998,-0.7627,-0.9747,-0.7587,-0.5954,-0.4824,-0.263,-0.104,0.0,0.0,0.0,0.0,0.0,0.0,0.0,0.0,0.0,0.0,0.0,0.0,0.0,0.0,0.0,0.0,0.0,0.0,0.0,0.0,0.0,0.0,0.0,0.0,0.0,0.0,0.0,0.0,0.0,0.0,0.0,0.0,0.0,0.0,0.0,0.0,0.0,0.0,0.0,0.0,0.0,0.0,0.0,0.0,0.0,0.0,0.0,0.0,0.0,0.0,0.0,0.0,0.0,0.0,0.0,0.0,0.0,0.0,0.0,0.0,0.0,0.0,0.0,0.0,0.0,0.1118,0.2179,-1.7114,-1.7202,-1.7216,-1.6919,-1.6653,-1.6273,-1.5764,-1.5805,-1.5368,-1.3469,-1.1289,-0.9182,-0.7405,-0.4811,-0.296,-0.2936,-0.2121,-0.1138,0.0,0.0,0.0,0.0,0.0,0.0,0.0,0.0,0.0,0.0,0.0,-0.0495,-0.1517,-0.1666,-0.164,-0.1613,-0.2783,-0.39,-0.4882,-0.6088,-0.7708,-0.9789,-0.7646,-0.6033,-0.4807,-0.2681,-0.1099,0.0,0.0,0.0,0.0,0.0,0.0,0.0,0.0,0.0,0.0,0.0,0.0,0.0,0.0,0.0,0.0,0.0,0.0,0.0,0.0,0.0,0.0,0.0,0.0,0.0,0.0,0.0,0.0,0.0,0.0,0.0,0.0,0.0,0.0,0.0,0.0,0.0,0.0,0.0,0.0,0.0,0.0,0.0,0.0,0.0,0.0,0.0,0.0,0.0,0.0,0.0,0.0,0.0,0.0,0.0,0.0,0.0,0.0,0.0,0.0,0.0,0.0,0.0,0.0,0.0,0.0,0.0]},{"header":{"parameterUnit":"m.s-1","parameterCategory":1,"la1":30.6,"la2":29.2853,"lo1":-89.7004,"lo2":-87.6739,"dy":0.0162,"dx":0.0183,"nx":112,"ny":82,"refTime":"2024-06-19T12:00:00:Z","depth":0,"parameterNumber":3,"parameterNumberName":"V-component_of_WINDS"},"data":[0.0,0.0,0.0,0.0,0.0,0.0,0.0,0.0,0.0,0.0,0.0,0.0,0.0,0.0,0.0,0.0,0.0,0.0,0.0,0.0,0.0,0.0,0.0,0.0,0.0,0.0,0.0,0.0,0.0,0.0,0.0,0.0,0.0,0.0,0.0,0.0,0.0,0.0,0.0,0.0,0.0,0.0,0.0,0.0,0.0,0.0,0.0,0.0,0.0,0.0,0.0,0.0,0.0,0.0,0.0,0.0,0.0,0.0,0.0,0.0,0.0,0.0,0.0,0.0,0.0,0.0,0.0,0.0,0.0,0.0,0.0,0.0,0.0,0.0,0.0,0.0,0.0,0.0,0.0,0.0,0.0,0.0,0.0,0.0,0.0,0.0,0.0,0.0,0.0,0.0,5.6983,5.7517,5.9517,6.0517,5.9742,5.9473,5.7973,5.4895,0.0,0.0,0.0,0.0,0.0,0.0,0.0,0.0,0.0,0.0,0.0,0.0,0.0,0.0,0.0,0.0,0.0,0.0,0.0,0.0,0.0,0.0,0.0,0.0,0.0,0.0,0.0,0.0,0.0,0.0,0.0,0.0,0.0,0.0,0.0,0.0,0.0,0.0,0.0,0.0,0.0,0.0,0.0,0.0,0.0,0.0,0.0,0.0,0.0,0.0,0.0,0.0,0.0,0.0,0.0,0.0,0.0,0.0,0.0,0.0,0.0,0.0,0.0,0.0,0.0,0.0,0.0,0.0,0.0,0.0,0.0,0.0,0.0,0.0,0.0,0.0,0.0,0.0,0.0,0.0,0.0,0.0,0.0,0.0,0.0,0.0,0.0,0.0,0.0,0.0,0.0,0.0,0.0,0.0,0.0,0.0,0.0,0.0,0.0,0.0,0.0,0.0,0.0,0.0,5.7016,5.9902,6.0556,6.0748,6.0594,5.9319,5.7627,5.5631,0.0,0.0,0.0,0.0,0.0,0.0,0.0,0.0,0.0,0.0,0.0,0.0,0.0,0.0,0.0,0.0,0.0,0.0,0.0,0.0,0.0,0.0,0.0,0.0,0.0,0.0,0.0,0.0,0.0,0.0,0.0,0.0,0.0,0.0,0.0,0.0,0.0,0.0,0.0,0.0,0.0,0.0,0.0,0.0,0.0,0.0,0.0,0.0,0.0,0.0,0.0,0.0,0.0,0.0,0.0,0.0,0.0,0.0,0.0,0.0,0.0,0.0,0.0,0.0,0.0,0.0,0.0,0.0,0.0,0.0,0.0,0.0,0.0,0.0,0.0,0.0,0.0,0.0,0.0,0.0,0.0,0.0,0.0,0.0,0.0,0.0,0.0,0.0,0.0,0.0,0.0,0.0,0.0,0.0,0.0,0.0,0.0,0.0,0.0,0.0,0.0,0.0,0.0,5.6478,5.7517,6.0479,6.0787,6.0787,6.0787,5.9665,5.8011,5.5824,5.3664,0.0,0.0,0.0,0.0,0.0,0.0,0.0,0.0,0.0,0.0,0.0,0.0,0.0,0.0,0.0,0.0,0.0,0.0,0.0,0.0,0.0,0.0,0.0,0.0,0.0,0.0,0.0,0.0,0.0,0.0,0.0,0.0,0.0,0.0,0.0,0.0,0.0,0.0,0.0,0.0,0.0,0.0,0.0,0.0,0.0,0.0,0.0,0.0,0.0,0.0,0.0,0.0,0.0,0.0,0.0,0.0,0.0,0.0,0.0,0.0,0.0,0.0,0.0,0.0,0.0,0.0,0.0,0.0,0.0,0.0,0.0,0.0,0.0,0.0,0.0,0.0,0.0,0.0,0.0,0.0,0.0,0.0,0.0,0.0,0.0,0.0,0.0,0.0,0.0,0.0,0.0,0.0,0.0,0.0,0.0,0.0,0.0,0.0,0.0,0.0,0.0,0.0,5.7824,5.8632,6.0594,6.0787,6.0787,6.0787,5.9435,5.7808,5.5869,5.2771,0.0,0.0,0.0,0.0,0.0,0.0,0.0,0.0,0.0,0.0,0.0,0.0,0.0,0.0,0.0,0.0,0.0,0.0,0.0,0.0,0.0,0.0,0.0,0.0,0.0,0.0,0.0,0.0,0.0,0.0,0.0,0.0,0.0,0.0,0.0,0.0,0.0,0.0,0.0,0.0,0.0,0.0,0.0,0.0,0.0,0.0,0.0,0.0,0.0,0.0,0.0,0.0,0.0,0.0,0.0,0.0,0.0,0.0,0.0,0.0,0.0,0.0,0.0,0.0,0.0,0.0,0.0,0.0,0.0,0.0,0.0,0.0,0.0,0.0,0.0,0.0,0.0,0.0,0.0,0.0,0.0,0.0,0.0,0.0,0.0,0.0,0.0,0.0,0.0,0.0,0.0,0.0,0.0,0.0,0.0,0.0,0.0,0.0,0.0,0.0,0.0,0.0,5.8594,6.0594,6.0787,6.0787,6.0787,6.0787,5.7824,5.5961,5.5896,5.1175,0.0,0.0,0.0,0.0,0.0,0.0,0.0,0.0,0.0,0.0,0.0,0.0,0.0,0.0,0.0,0.0,0.0,0.0,0.0,0.0,0.0,0.0,0.0,0.0,0.0,0.0,0.0,0.0,0.0,0.0,0.0,0.0,0.0,0.0,0.0,0.0,0.0,0.0,0.0,0.0,0.0,0.0,0.0,0.0,0.0,0.0,0.0,0.0,0.0,0.0,0.0,0.0,0.0,0.0,0.0,0.0,0.0,0.0,0.0,0.0,0.0,0.0,0.0,0.0,0.0,0.0,0.0,0.0,0.0,0.0,0.0,0.0,0.0,0.0,0.0,0.0,0.0,0.0,0.0,0.0,0.0,0.0,0.0,0.0,0.0,0.0,0.0,0.0,0.0,0.0,0.0,0.0,0.0,0.0,0.0,0.0,0.0,0.0,0.0,0.0,0.0,0.0,5.8094,5.9627,6.071,6.0787,6.0787,6.0787,5.9212,5.7321,5.5216,0.0,0.0,0.0,0.0,0.0,0.0,0.0,0.0,0.0,0.0,0.0,0.0,0.0,0.0,0.0,0.0,0.0,0.0,0.0,0.0,0.0,0.0,0.0,0.0,0.0,0.0,0.0,0.0,0.0,0.0,0.0,0.0,0.0,0.0,0.0,0.0,0.0,0.0,0.0,0.0,0.0,0.0,0.0,0.0,0.0,0.0,0.0,0.0,0.0,0.0,0.0,0.0,0.0,0.0,0.0,0.0,0.0,0.0,0.0,0.0,0.0,0.0,0.0,0.0,0.0,0.0,0.0,0.0,0.0,0.0,0.0,0.0,0.0,0.0,0.0,0.0,0.0,0.0,0.0,0.0,0.0,0.0,0.0,0.0,0.0,0.0,0.0,0.0,0.0,0.0,0.0,0.0,0.0,0.0,0.0,0.0,0.0,0.0,0.0,0.0,0.0,0.0,5.7132,5.8396,5.9627,6.1056,6.0988,6.085,6.085,5.9456,5.7504,5.4938,0.0,0.0,0.0,0.0,0.0,0.0,0.0,0.0,0.0,0.0,0.0,0.0,0.0,0.0,0.0,0.0,0.0,0.0,0.0,0.0,0.0,0.0,0.0,0.0,0.0,0.0,0.0,0.0,0.0,0.0,0.0,0.0,0.0,0.0,0.0,0.0,0.0,0.0,0.0,0.0,0.0,0.0,0.0,0.0,0.0,0.0,0.0,0.0,0.0,0.0,0.0,0.0,0.0,0.0,0.0,0.0,0.0,0.0,0.0,0.0,0.0,0.0,0.0,0.0,0.0,0.0,0.0,0.0,0.0,0.0,0.0,0.0,0.0,0.0,0.0,0.0,0.0,0.0,0.0,0.0,0.0,0.0,0.0,0.0,0.0,0.0,0.0,0.0,0.0,0.0,0.0,0.0,0.0,0.0,0.0,0.0,0.0,0.0,0.0,0.0,0.0,0.0,5.8083,5.9781,6.1172,6.2024,6.1471,6.1001,6.1006,5.8095,5.5903,0.0,0.0,0.0,0.0,0.0,0.0,0.0,0.0,0.0,0.0,0.0,0.0,0.0,0.0,0.0,0.0,0.0,0.0,0.0,0.0,0.0,0.0,0.0,0.0,0.0,0.0,0.0,0.0,0.0,0.0,0.0,0.0,0.0,0.0,0.0,0.0,0.0,0.0,0.0,0.0,0.0,0.0,0.0,0.0,0.0,0.0,0.0,0.0,0.0,0.0,0.0,0.0,0.0,0.0,0.0,0.0,0.0,0.0,0.0,0.0,0.0,0.0,0.0,0.0,0.0,0.0,0.0,0.0,0.0,0.0,0.0,0.0,0.0,0.0,0.0,0.0,0.0,0.0,0.0,0.0,0.0,0.0,0.0,0.0,0.0,0.0,0.0,0.0,0.0,0.0,0.0,0.0,0.0,0.0,0.0,0.0,0.0,0.0,0.0,0.0,0.0,0.0,0.0,5.8934,6.116,6.2716,6.3119,6.2423,6.1952,6.2104,6.0229,5.765,5.4384,0.0,0.0,0.0,0.0,0.0,0.0,0.0,0.0,0.0,0.0,0.0,0.0,0.0,0.0,0.0,0.0,0.0,0.0,0.0,0.0,0.0,0.0,0.0,0.0,0.0,0.0,0.0,0.0,0.0,0.0,0.0,0.0,0.0,0.0,0.0,0.0,0.0,0.0,0.0,0.0,0.0,0.0,0.0,0.0,0.0,0.0,0.0,0.0,0.0,0.0,0.0,0.0,0.0,0.0,0.0,0.0,0.0,0.0,0.0,0.0,0.0,0.0,0.0,0.0,0.0,0.0,0.0,0.0,0.0,0.0,0.0,0.0,0.0,0.0,0.0,0.0,0.0,0.0,0.0,0.0,0.0,0.0,0.0,0.0,0.0,0.0,0.0,0.0,0.0,0.0,0.0,0.0,0.0,0.0,0.0,0.0,0.0,0.0,0.0,0.0,0.0,0.0,5.984,6.2044,6.3616,6.4143,6.3493,6.2914,6.2696,6.1505,5.9119,5.5171,0.0,0.0,0.0,0.0,0.0,0.0,0.0,0.0,0.0,0.0,0.0,0.0,0.0,0.0,0.0,0.0,0.0,0.0,0.0,0.0,0.0,0.0,0.0,0.0,0.0,0.0,0.0,0.0,0.0,0.0,0.0,0.0,0.0,0.0,0.0,0.0,0.0,0.0,0.0,0.0,0.0,0.0,0.0,0.0,0.0,0.0,0.0,0.0,0.0,0.0,0.0,0.0,0.0,0.0,0.0,0.0,0.0,0.0,0.0,0.0,0.0,0.0,0.0,0.0,0.0,0.0,0.0,0.0,0.0,0.0,0.0,0.0,0.0,0.0,0.0,0.0,0.0,0.0,0.0,0.0,0.0,0.0,0.0,0.0,0.0,0.0,0.0,0.0,0.0,0.0,0.0,0.0,0.0,0.0,0.0,0.0,0.0,0.0,0.0,0.0,0.0,0.0,6.0885,6.278,6.4268,6.5235,6.4655,6.389,6.3115,6.2297,6.039,5.7031,0.0,0.0,0.0,0.0,0.0,0.0,0.0,0.0,0.0,0.0,0.0,0.0,0.0,0.0,0.0,0.0,0.0,0.0,0.0,0.0,0.0,0.0,0.0,0.0,0.0,0.0,0.0,0.0,0.0,0.0,0.0,0.0,0.0,0.0,0.0,0.0,0.0,0.0,0.0,0.0,0.0,0.0,0.0,0.0,0.0,0.0,0.0,0.0,0.0,0.0,0.0,0.0,0.0,0.0,0.0,0.0,0.0,0.0,0.0,0.0,6.3594,6.125,0.0,0.0,0.0,0.0,0.0,0.0,0.0,0.0,0.0,0.0,0.0,0.0,0.0,0.0,0.0,0.0,0.0,0.0,0.0,0.0,0.0,0.0,0.0,0.0,0.0,0.0,0.0,0.0,0.0,0.0,0.0,0.0,0.0,0.0,0.0,0.0,0.0,0.0,0.0,0.0,6.2698,6.466,6.6208,6.7204,6.5943,6.504,6.4996,6.3593,6.1562,5.8828,5.6836,0.0,0.0,0.0,0.0,0.0,0.0,0.0,0.0,0.0,0.0,0.0,0.0,0.0,0.0,0.0,0.0,0.0,0.0,0.0,0.0,0.0,0.0,0.0,0.0,0.0,0.0,0.0,0.0,0.0,0.0,0.0,0.0,0.0,0.0,0.0,0.0,0.0,0.0,0.0,0.0,0.0,0.0,0.0,0.0,0.0,0.0,0.0,0.0,0.0,0.0,0.0,0.0,0.0,0.0,0.0,0.0,0.0,0.0,0.0,6.7734,6.5664,0.0,0.0,0.0,0.0,0.0,0.0,0.0,0.0,0.0,0.0,0.0,0.0,0.0,0.0,0.0,0.0,0.0,0.0,0.0,0.0,0.0,0.0,0.0,0.0,0.0,0.0,0.0,0.0,0.0,0.0,0.0,0.0,0.0,0.0,0.0,0.0,0.0,0.0,0.0,0.0,6.3516,6.5761,6.7518,6.8494,6.7795,6.6983,6.6289,6.539,6.3789,6.1172,5.9023,0.0,0.0,0.0,0.0,0.0,0.0,0.0,0.0,0.0,0.0,0.0,0.0,0.0,0.0,0.0,0.0,0.0,0.0,0.0,0.0,0.0,0.0,0.0,0.0,0.0,0.0,0.0,0.0,0.0,0.0,0.0,0.0,0.0,0.0,0.0,0.0,0.0,0.0,0.0,0.0,0.0,0.0,0.0,0.0,0.0,0.0,0.0,0.0,0.0,0.0,0.0,0.0,0.0,7.4453,7.4922,7.6133,7.4687,7.4805,7.6015,7.3008,7.1523,7.0976,6.8711,0.0,0.0,0.0,0.0,0.0,0.0,0.0,0.0,0.0,0.0,0.0,0.0,0.0,0.0,0.0,0.0,0.0,0.0,0.0,0.0,0.0,0.0,6.8983,7.0952,7.1404,6.9765,6.3816,0.0,0.0,0.0,0.0,0.0,0.0,0.0,0.0,0.0,0.0,0.0,6.4396,6.6752,6.8531,6.9531,6.9492,6.8867,6.7461,6.7226,6.6133,6.3828,6.1406,5.9687,0.0,0.0,0.0,0.0,0.0,0.0,0.0,0.0,0.0,0.0,0.0,0.0,0.0,0.0,0.0,0.0,0.0,0.0,0.0,0.0,0.0,0.0,0.0,0.0,0.0,0.0,0.0,0.0,0.0,0.0,0.0,0.0,6.7364,6.8208,0.0,0.0,0.0,0.0,0.0,0.0,0.0,0.0,0.0,0.0,0.0,0.0,0.0,7.7109,7.8672,8.0195,8.1015,8.1133,8.2539,8.2929,8.2422,8.2187,8.2187,8.2344,8.1133,0.0,7.2851,7.1797,0.0,0.0,0.0,0.0,0.0,0.0,0.0,0.0,0.0,0.0,0.0,0.0,0.0,0.0,0.0,0.0,0.0,0.0,0.0,0.0,0.0,0.0,7.4805,7.5116,7.506,7.4667,7.371,6.9964,6.6052,6.3477,6.2594,6.1626,0.0,0.0,0.0,0.0,0.0,0.0,6.7056,6.8463,6.9531,7.043,6.9883,6.9414,6.918,6.8476,6.7578,6.6445,6.4648,6.3242,6.2344,5.9883,0.0,0.0,0.0,0.0,0.0,0.0,0.0,0.0,0.0,0.0,0.0,0.0,0.0,0.0,0.0,0.0,0.0,0.0,0.0,0.0,0.0,0.0,0.0,0.0,0.0,0.0,0.0,0.0,0.0,6.8219,7.0413,7.1268,7.2205,7.221,0.0,0.0,0.0,0.0,0.0,0.0,0.0,0.0,0.0,8.1973,8.2185,8.3047,8.4726,8.5508,8.5664,8.5234,8.6445,8.6601,8.582,8.625,8.6211,8.5781,8.539,8.3437,8.0312,7.6992,7.4648,7.2969,0.0,0.0,0.0,0.0,7.043,7.0547,7.2031,7.1953,7.1367,7.207,0.0,0.0,0.0,0.0,0.0,0.0,0.0,7.0859,7.3047,7.5117,7.6992,7.8437,7.8708,7.8622,7.8622,7.6817,7.3777,6.9092,6.8325,6.7153,6.3021,6.2479,0.0,0.0,0.0,6.7139,6.9209,7.0701,7.1914,7.2812,7.2148,7.1445,7.0937,7.0117,6.9219,6.8359,6.7148,6.6328,6.5937,6.3437,6.1445,0.0,0.0,0.0,0.0,0.0,0.0,0.0,0.0,0.0,0.0,0.0,0.0,0.0,0.0,0.0,0.0,0.0,0.0,0.0,0.0,0.0,0.0,0.0,0.0,0.0,0.0,0.0,0.0,7.2354,7.402,7.4744,7.6445,7.6809,0.0,0.0,0.0,0.0,0.0,0.0,8.1517,8.1976,8.376,8.7157,8.7418,8.8203,8.9687,8.9687,8.9414,8.8828,8.9414,8.9375,8.8828,8.9414,8.9375,8.8789,8.8554,8.7969,8.6797,8.207,7.8984,7.7031,7.5547,7.4687,7.4297,7.4297,7.4023,7.3945,7.5898,7.6133,7.5664,7.6094,7.4922,7.3047,7.1523,0.0,0.0,0.0,0.0,7.3867,7.625,7.7539,7.875,8.1094,8.1484,8.1406,8.1601,8.1484,7.9722,7.4326,7.3715,7.246,6.7312,6.6908,0.0,6.5508,6.75,6.9765,7.1484,7.2812,7.3867,7.4531,7.4023,7.3359,7.2734,7.1875,7.0976,7.0117,6.9297,6.875,6.8515,6.6445,6.4492,6.2734,0.0,0.0,0.0,0.0,0.0,0.0,0.0,0.0,0.0,0.0,0.0,0.0,0.0,0.0,0.0,0.0,0.0,0.0,0.0,0.0,0.0,0.0,0.0,0.0,0.0,0.0,0.0,0.0,0.0,7.8907,8.1285,0.0,0.0,0.0,0.0,8.2782,8.443,8.6216,8.8124,8.9023,8.9961,9.1015,9.1054,9.1484,9.2383,9.2383,9.2383,9.2344,9.2383,9.2383,9.2344,9.2383,9.2383,9.2304,9.1484,9.0625,8.9531,8.6015,8.3047,8.0664,7.9726,7.8398,7.6992,7.6992,7.75,7.8203,7.832,7.8359,7.8555,8.0156,7.8984,7.6758,7.5859,7.4375,0.0,0.0,7.5625,7.7344,7.9062,8.0156,8.125,8.3047,8.2851,8.2461,8.3281,8.2812,8.1406,7.8671,7.7539,7.6093,7.332,0.0,7.164,7.1562,7.1719,7.2422,7.418,7.4492,7.4531,7.4609,7.457,7.4531,7.4453,7.3672,7.2812,7.1914,7.1055,7.0195,6.9375,6.8476,6.7187,6.543,6.2851,0.0,0.0,0.0,0.0,0.0,0.0,0.0,0.0,0.0,0.0,0.0,0.0,0.0,0.0,0.0,0.0,0.0,0.0,0.0,0.0,0.0,0.0,0.0,0.0,0.0,0.0,0.0,0.0,8.3562,8.6039,0.0,8.5478,8.6103,8.7126,8.8352,8.9016,9.0153,9.1953,9.2344,9.3164,9.4609,9.4648,9.4804,9.5117,9.5117,9.4844,9.4297,9.4844,9.4804,9.4297,9.4844,9.4804,9.4258,9.3945,9.332,9.2383,9.0586,8.7695,8.4336,8.3984,8.3164,8.2148,8.2148,8.2344,8.2539,8.1992,8.1797,8.1719,8.1172,8.039,7.9492,7.8594,7.789,7.7617,7.8476,7.918,8.0039,8.1758,8.2422,8.2969,8.414,8.3789,8.3203,8.3515,8.2929,8.2031,8.1133,7.9805,7.8008,7.543,7.5195,7.4961,7.3828,7.5117,7.6406,7.7031,7.7578,7.7695,7.7187,7.6601,7.6055,7.5469,7.4101,7.3164,7.2851,7.2031,7.1406,7.1094,7.0273,6.9023,6.7305,6.5273,6.2656,0.0,0.0,0.0,0.0,0.0,0.0,0.0,0.0,0.0,0.0,0.0,0.0,0.0,0.0,0.0,0.0,0.0,0.0,0.0,0.0,0.0,0.0,0.0,0.0,0.0,8.3437,8.6289,8.7734,9.0195,9.1406,9.0547,9.1523,9.2539,9.3398,9.3711,9.4531,9.5976,9.6054,9.6601,9.7734,9.7773,9.7773,9.7773,9.7773,9.75,9.6914,9.75,9.7461,9.6914,9.7226,9.7031,9.6445,9.5898,9.5312,9.4687,9.3515,9.1172,8.8281,8.7383,8.6328,8.5351,8.5351,8.5156,8.4804,8.4258,8.4023,8.3789,8.2344,8.1875,8.1719,8.0859,8.0586,8.0703,8.1289,8.164,8.2148,8.3281,8.3828,8.4258,8.5117,8.4453,8.3672,8.3984,8.3125,8.2304,8.2304,8.1367,7.9961,7.7969,7.8086,7.8086,7.6914,7.7969,7.9023,7.9297,7.9531,7.9492,7.8945,7.8398,7.7812,7.7226,7.5351,7.4297,7.4609,7.2969,7.2148,7.2422,7.1328,7.0039,6.8672,6.6914,6.5039,6.3047,0.0,0.0,0.0,0.0,0.0,0.0,0.0,0.0,0.0,0.0,0.0,0.0,0.0,0.0,0.0,0.0,0.0,0.0,0.0,0.0,0.0,0.0,0.0,8.3945,8.7461,9.0508,9.1367,9.3789,9.5039,9.4219,9.5664,9.6992,9.7812,9.8633,9.9492,10.0312,10.039,10.039,10.0312,10.0312,10.0312,10.0312,10.0312,10.0312,10.0312,10.0312,10.0312,10.039,9.9453,9.9023,9.8945,9.7304,9.6562,9.6406,9.4687,9.3476,9.2461,8.9804,8.7773,8.6328,8.6328,8.5781,8.5039,8.5,8.4961,8.4804,8.3906,8.3633,8.3476,8.2617,8.2344,8.2383,8.2344,8.2969,8.3633,8.3672,8.4297,8.5156,8.6015,8.4922,8.3906,8.4765,8.3594,8.2383,8.2383,8.2383,8.2109,8.1211,8.1054,8.1054,8.1054,8.0312,0.0,8.0937,8.0312,7.9765,7.9726,7.9726,7.9726,7.9687,7.7383,7.6289,7.7148,7.3945,7.2422,7.3359,7.1719,7.0469,6.9687,6.7969,6.75,6.832,0.0,0.0,0.0,0.0,0.0,0.0,0.0,0.0,0.0,0.0,0.0,0.0,0.0,0.0,0.0,0.0,0.0,0.0,0.0,0.0,0.0,8.7304,8.9961,8.8437,9.1445,9.4101,9.4961,9.7344,9.9062,9.9453,9.9922,10.0586,10.1406,10.1719,10.1914,10.2187,10.2187,10.1914,10.1289,10.1211,10.0898,10.0312,10.0312,10.0586,10.1211,10.0586,10.1015,10.2109,10.0586,9.9922,9.9883,9.8789,9.7969,9.7304,9.6211,9.5625,9.5117,9.1836,8.9922,8.8945,8.8945,8.8398,8.7578,8.6992,8.6367,8.5703,8.4844,8.4531,8.4375,8.3515,8.3672,8.4062,8.3437,8.3867,8.4687,8.5312,8.5664,8.6054,8.6953,8.6289,8.5547,8.5781,8.4961,8.4179,8.4179,8.4179,8.3711,8.2187,8.1953,8.1953,8.1953,8.1758,8.1679,8.1914,8.1719,8.1328,8.0703,8.0625,8.039,7.9765,7.793,7.6953,7.7187,7.4531,7.3633,7.5117,7.4101,7.3437,7.3203,7.2109,7.1367,0.0,0.0,0.0,0.0,0.0,0.0,0.0,0.0,0.0,0.0,0.0,0.0,0.0,0.0,0.0,0.0,0.0,0.0,0.0,0.0,0.0,0.0,9.1361,9.3965,9.3653,9.5114,9.6992,9.8945,10.0508,10.1914,10.3086,10.3203,10.3398,10.3984,10.3984,10.3984,10.3984,10.3899,10.3614,10.3106,10.2917,10.2681,10.2285,10.2286,10.2609,10.3203,10.2695,10.3008,10.3906,10.2187,10.1406,10.1289,10.0117,9.9062,9.8164,9.7344,9.6797,9.6211,0.0,0.0,0.0,0.0,9.0,8.9179,8.8711,8.7969,8.7109,8.625,8.5742,8.5273,8.4414,8.4492,8.4804,8.4297,8.4765,8.5547,8.6054,8.6719,8.7304,8.7461,8.7109,8.664,8.6289,8.5464,8.4751,8.4751,8.4691,0.0,8.3259,8.2957,8.2734,8.2344,8.2304,8.2304,8.2304,8.2304,8.2109,8.1601,8.1523,8.1328,8.082,7.9219,0.0,0.0,0.0,7.5234,7.5859,7.539,0.0,0.0,0.0,0.0,0.0,7.5648,0.0,0.0,7.4113,7.4301,0.0,0.0,0.0,0.0,0.0,0.0,0.0,0.0,0.0,0.0,0.0,0.0,0.0,0.0,0.0,0.0,9.5451,9.7213,9.8893,9.8751,9.9564,10.2494,10.3119,10.39,10.5502,10.5817,10.5896,10.601,10.6013,10.6013,10.601,10.5715,0.0,0.0,0.0,10.5092,10.5204,10.5191,10.5287,10.5584,10.5504,10.5502,10.5581,10.39,10.3082,10.2889,10.1287,9.996,9.8945,9.8164,9.7304,9.6328,9.4687,9.4062,9.3867,9.2304,9.1172,9.0429,9.0312,0.0,0.0,8.8047,8.7187,8.6328,8.5469,8.5195,8.5156,8.5078,8.5664,8.6367,8.6445,8.7578,8.8515,8.7812,8.7695,8.7499,8.6562,8.564,8.4993,8.4915,8.4695,8.4494,8.4388,8.3906,8.3319,8.2538,8.2343,8.2304,8.2304,8.2304,8.2304,8.2304,8.2304,0.0,8.2304,8.0781,8.0195,8.0937,7.8867,7.7186,7.6327,7.6442,7.6871,7.7535,7.7652,7.8728,8.0799,8.0916,8.1318,8.1855,7.6588,7.6132,0.0,0.0,0.0,0.0,0.0,0.0,0.0,0.0,0.0,0.0,0.0,0.0,0.0,0.0,0.0,9.4154,9.7468,10.0513,10.2191,10.2889,10.2997,10.2308,10.4096,10.5693,10.6788,10.7713,10.8399,10.8905,10.9081,10.9215,10.8905,10.8809,10.8508,10.7885,10.7791,10.7191,10.6099,10.5913,10.5902,10.6103,10.5197,0.0,10.6801,10.5117,10.3995,10.3602,10.2507,10.091,9.8984,9.8828,9.7851,9.6406,9.5351,9.4961,9.4922,9.457,9.3906,9.3047,9.2344,9.1523,9.0664,8.9804,8.8945,8.8047,8.7265,8.6992,0.0,8.6133,8.6562,8.7383,8.8047,8.8476,8.8672,8.8515,8.8891,8.8907,8.7538,8.7475,8.7451,8.6751,8.6577,8.6251,8.5397,8.4184,8.3304,8.3146,8.2646,8.2304,8.2304,8.2304,8.2304,8.2304,8.2304,8.2304,8.2304,8.1367,8.082,8.0976,8.0408,7.9634,7.8774,7.9939,8.0344,7.9796,8.0461,8.1065,8.1523,8.2192,8.2949,8.3683,8.1894,8.1385,0.0,0.0,0.0,0.0,0.0,0.0,0.0,0.0,0.0,0.0,0.0,8.978,9.15,0.0,9.6731,9.8019,10.0584,10.2818,10.371,10.519,10.5909,10.5399,10.6403,10.7493,10.8393,10.8983,10.9585,11.031,11.0117,11.0091,11.0305,10.9804,10.9287,10.8893,10.8794,10.8409,10.7804,10.7694,10.7699,10.7998,10.6984,10.7003,10.7786,10.5986,10.5187,10.5012,10.3682,10.2302,10.0898,9.9531,9.8242,9.707,9.6601,9.5937,9.5234,9.5703,9.5312,9.4492,9.4062,9.3047,9.1875,9.1445,9.0429,8.9297,8.8867,8.8437,8.8008,8.7578,8.7773,8.8203,8.8594,8.9336,8.9883,8.9453,8.9955,9.018,8.8984,8.8813,8.8596,8.7744,8.7427,8.6926,8.595,8.4922,8.3992,8.3273,8.2845,8.2497,8.207,8.1994,8.2187,8.2612,8.2265,8.2187,8.2612,8.2261,8.1986,8.1986,8.1928,8.1844,8.1802,8.2153,8.2334,8.2291,8.2723,8.2898,8.28,8.3232,8.3823,8.4558,8.4558,8.4326,0.0,0.0,0.0,0.0,0.0,0.0,0.0,8.5792,8.8162,9.0921,9.2791,9.4843,9.7664,9.9041,10.0285,10.2318,10.3981,10.5013,10.5001,10.6905,10.8512,10.9293,10.9081,10.9096,10.9702,11.0005,11.0488,11.1094,11.0684,11.069,11.1281,11.0492,11.0004,11.0004,10.9591,10.9504,10.9585,10.9504,10.9515,10.9593,10.9021,10.8593,10.8399,10.7021,10.6403,10.6185,10.4414,10.3215,10.2187,9.9922,9.8476,9.7695,9.7695,9.6875,9.5781,9.6484,9.6172,9.5469,9.5469,9.4297,9.2851,9.2851,9.1679,9.0234,9.0234,8.9648,8.8945,8.8945,8.8945,8.8984,8.914,9.0234,9.1133,9.0429,9.0897,9.1207,9.0153,8.973,8.9294,8.8437,8.7842,8.7231,8.6495,8.582,8.4925,8.3625,8.3312,8.2913,8.2069,8.2108,8.2376,8.2952,8.2493,8.2454,8.3186,8.3225,8.3225,8.3225,8.3183,8.3468,8.4124,8.3461,8.3437,8.4053,8.4092,8.4178,8.4346,8.4346,8.4783,8.567,8.6286,8.6269,7.5381,7.7209,7.9572,8.1902,8.3825,8.6436,0.0,9.3476,9.5155,9.853,10.0598,10.2009,10.2582,10.4099,10.4985,10.4513,10.639,10.7898,10.771,10.9213,11.0894,11.2499,11.1306,11.0295,11.0208,11.1293,11.1909,11.1499,11.2299,11.2699,11.249,11.2408,11.2299,11.2299,11.1592,11.0998,11.0506,11.0189,10.9793,10.9306,10.9283,10.8895,10.8082,10.822,10.7498,10.6193,10.4008,10.2109,10.0508,9.9453,9.8476,9.7695,9.7695,9.7578,9.7422,9.7539,9.7031,9.6367,9.6367,9.5195,9.375,9.375,9.2578,9.1133,9.1133,9.0547,8.9844,8.9844,8.9844,9.0039,9.082,9.1133,9.1289,9.1172,9.1623,9.165,9.0087,9.0119,9.0135,8.9102,8.821,8.7592,8.7314,8.6558,8.5753,8.5067,8.4442,8.3765,8.2952,8.3493,8.3687,8.3069,8.3532,8.396,8.4072,8.4072,8.4072,8.4072,8.3905,8.3844,8.3915,8.3677,8.358,8.3657,8.3657,8.4404,8.5851,8.5851,8.6673,8.8295,8.8372,8.7965,8.0502,8.2318,8.4044,8.5473,8.8189,9.1359,9.4636,9.6104,9.7789,10.1194,10.2611,10.3717,10.5393,10.6187,10.7082,10.8211,10.9296,11.0099,11.051,11.1106,11.1683,11.1916,11.1417,11.1411,11.2079,11.2316,11.2592,11.3413,11.3312,11.3305,11.3698,11.351,11.3214,11.2714,11.2406,11.2089,11.1799,11.1402,11.1082,11.0801,11.0503,11.0213,10.9786,10.891,10.7381,10.5488,10.421,10.2695,10.1015,10.0117,9.9258,9.8398,9.789,9.7695,9.7695,9.7695,9.75,9.7187,9.7187,9.6406,9.5312,9.4804,9.3828,9.2734,9.2226,9.1445,9.0859,9.1367,9.1523,9.1719,9.2578,9.3203,9.3437,9.2929,9.3004,9.2828,9.1451,9.1239,9.1024,8.9958,8.9325,8.8799,8.8243,8.7863,8.7537,8.728,8.5741,8.4289,8.3444,8.3637,8.3715,8.3412,8.4095,8.4405,8.3908,8.4327,8.4598,8.4598,8.4534,8.4911,8.5914,8.4912,8.4824,8.5794,8.5824,8.617,8.6863,8.7363,8.7987,8.8718,8.9171,8.921,8.4197,8.5743,8.7098,8.8794,9.1992,9.5208,9.7037,9.8772,10.088,10.3884,10.5093,10.6303,10.8501,10.8898,10.9483,11.1393,11.1896,11.2185,11.271,11.2619,11.2415,11.2181,11.1812,11.2091,11.3694,11.3005,11.301,11.4417,11.4091,11.4085,11.4721,11.448,11.4099,11.3407,11.3214,11.302,11.2819,11.2492,11.222,11.1984,11.1711,11.1411,11.1217,10.9487,10.7707,10.5808,10.4917,10.3594,10.1914,10.0781,9.9804,9.8906,9.8047,9.7695,9.7695,9.7695,9.7695,9.7695,9.7695,9.7187,9.6406,9.5742,9.4961,9.414,9.3515,9.2695,9.2187,9.3086,9.3125,9.3164,9.4023,9.4726,9.5039,9.4414,9.4217,9.3848,9.27,9.2293,9.1883,9.1054,9.055,9.0047,8.9479,8.9171,8.8949,8.8718,8.7132,8.5555,8.4439,8.4093,8.414,8.4601,8.5209,8.5324,8.4717,8.544,8.594,8.594,8.594,8.6478,8.7709,8.6594,8.6517,8.7709,8.7748,8.7863,8.8094,8.8709,8.9133,8.9402,8.9979,9.0278,8.501,8.5916,8.7477,9.1914,9.4663,9.6972,9.9746,10.2993,10.5912,10.7905,10.99,11.1611,11.2809,11.3007,11.3007,11.3085,11.3788,11.4288,11.4008,11.3207,11.3285,11.5007,11.3017,11.2283,11.4295,11.3393,11.2985,11.3582,11.4913,11.5604,11.5689,11.5406,11.5215,11.5215,11.4407,11.3697,11.3209,11.3186,11.2891,11.23,11.25,11.2192,11.1414,10.9986,10.8789,10.7812,10.6211,10.4492,10.2695,10.1015,9.9804,9.8906,9.8047,9.7695,9.7695,9.7695,9.7695,9.7695,9.7695,9.7187,9.6484,9.6484,9.5859,9.5156,9.5117,9.4492,9.3984,9.4883,9.4492,9.4062,9.4922,9.5195,9.5195,9.5156,9.4977,9.4487,9.3383,9.2965,9.269,9.2477,9.1757,9.1171,9.1133,9.0432,8.9594,8.8833,8.8641,8.794,8.6247,8.5363,8.5478,8.7094,8.7325,8.7325,8.7286,8.8064,8.8564,8.8564,8.8564,8.8603,8.8679,8.8603,8.8603,8.8679,8.8679,8.9056,8.9816,8.9855,9.0316,9.1133,9.1171,9.1171,8.7198,8.9615,9.2296,9.5511,9.8106,10.0612,10.3188,10.4816,10.601,10.6608,10.7607,10.8391,10.8789,10.9414,11.0508,11.2812,11.3398,11.3983,11.499,11.491,11.4285,11.3191,11.28,11.2688,11.2812,11.3511,11.4199,11.4994,11.5614,11.5995,11.6008,11.6103,11.5918,11.5291,11.4984,11.4913,11.4898,11.4515,11.4295,11.4308,11.4016,11.3386,11.2606,11.0897,10.9414,10.789,10.6797,10.5312,10.3711,10.25,10.1484,10.0586,9.914,9.8554,9.8476,9.789,9.7695,9.7695,9.7695,9.7539,9.7226,9.6679,9.6289,9.5937,9.539,9.5,9.4922,9.582,9.5859,9.582,9.664,9.6875,9.6719,9.6172,9.5874,9.534,9.4223,9.3836,9.3604,9.3337,9.3056,9.2864,9.2864,9.2633,9.1941,9.0556,8.941,8.8487,8.7902,8.7594,8.7632,8.8218,8.8256,8.8256,8.8256,8.8526,8.8718,8.8718,8.8718,8.894,8.9479,8.8979,8.894,8.9479,8.9517,8.9624,8.9893,9.047,9.0893,9.121,9.121,9.121,8.983,9.2286,9.4817,9.8505,10.0819,10.2787,10.5208,10.6182,10.6407,10.6087,10.6384,10.6719,10.6719,10.7187,10.8789,11.2617,11.3203,11.3984,11.6289,11.6093,11.5195,11.3906,11.3711,11.3593,11.3281,11.4609,11.5508,11.5781,11.6307,11.658,11.6591,11.6505,11.6303,11.5676,11.5676,11.5684,11.5712,11.549,11.5209,11.4996,11.4292,11.3711,11.3203,11.1718,11.0312,10.8906,10.7695,10.6406,10.5,10.3515,10.2617,10.1914,10.0117,9.9258,9.8945,9.8359,9.7969,9.7695,9.7695,9.7695,9.7617,9.7109,9.6914,9.6836,9.625,9.5898,9.5859,9.6679,9.6719,9.6679,9.75,9.7695,9.7538,9.6945,9.6609,9.6111,9.4985,9.4589,9.4357,9.4196,9.4181,9.4181,9.4181,9.3912,9.3326,9.2249,9.1171,9.018,8.9248,8.8872,8.8795,8.9094,8.9402,8.9594,8.9594,9.0133,9.0372,9.0064,9.0064,9.0287,9.0816,9.0017,8.9979,9.0816,9.0509,9.0509,9.0825,9.1095,9.1364,9.1672,9.1364,9.121,9.2793,9.4021,9.5438,10.09,10.2682,10.3697,10.5809,10.6888,10.7202,10.6302,10.6305,10.6406,10.6406,10.6484,10.8007,11.2304,11.3085,11.4413,11.7812,11.6914,11.6093,11.6914,11.5586,11.4883,11.5703,11.6484,11.6718,11.5898,11.6818,11.7403,11.7403,11.6805,11.6495,11.6495,11.6495,11.6291,11.5811,11.6002,11.5591,11.4609,11.3711,11.3281,11.3203,11.2304,11.1406,11.0586,10.8789,10.7617,10.6601,10.4101,10.3008,10.2812,10.1094,9.9883,9.9062,9.9023,9.8437,9.7695,9.7695,9.7695,9.7695,9.7695,9.7695,9.7695,9.7695,9.7187,9.6719,9.75,9.7148,9.6758,9.75,9.7695,9.7654,9.7437,9.721,9.6706,9.5668,9.5237,9.5066,9.5066,9.5066,9.5066,9.5066,9.4335,9.3749,9.3749,9.3719,9.2826,9.0393,8.944,8.9248,9.0009,9.0825,9.1325,9.1325,9.2787,9.3364,9.2595,9.2556,9.2556,9.2556,9.1787,9.171,9.2556,9.171,9.1672,9.2479,9.1633,9.1633,9.2402,9.1595,9.121,9.6024,9.8503,10.089,10.3712,10.4506,10.4914,10.6013,10.548,10.4505,10.3604,10.3219,10.2615,10.1799,10.3189,10.5695,10.9096,11.1292,11.3801,11.7506,11.7595,11.7308,11.6991,11.6601,11.6211,11.5781,11.6484,11.6914,11.6718,11.7091,11.7403,11.7403,11.6805,11.6495,11.6495,11.6495,11.6609,11.6718,11.6494,11.6406,11.6289,11.4883,11.4218,11.4101,11.2617,11.1797,11.1484,10.9687,10.8515,10.7617,10.6289,10.5,10.3789,10.2695,10.1289,9.9883,9.9258,9.8437,9.7695,9.7695,9.7695,9.7695,9.7695,9.7695,9.7695,9.7695,9.7578,9.7422,9.7656,9.7539,9.7422,9.7656,9.7695,9.7654,9.7437,9.721,9.6862,9.6398,9.6117,9.598,9.598,9.598,9.598,9.598,9.5249,9.4681,9.4681,9.4104,9.348,9.2826,9.2556,9.2479,9.271,9.2941,9.3056,9.3056,9.3441,9.3595,9.3403,9.3403,9.3403,9.3403,9.3172,9.3172,9.3403,9.2595,9.2287,9.2479,9.1633,9.1325,9.1518,9.1287,9.121,9.9423,10.1593,10.331,10.521,10.5412,10.5109,10.5311,10.4381,10.2818,10.0786,10.0383,10.0113,9.8994,10.0917,10.3787,10.7413,11.0092,11.3102,11.7096,11.8087,11.8512,11.8487,11.8316,11.789,11.75,11.75,11.7617,11.7617,11.7481,11.7403,11.7403,11.6805,11.6495,11.6495,11.6495,11.6682,11.7186,11.6582,11.6381,11.6406,11.5117,11.4297,11.3906,11.25,11.1718,11.1289,10.9883,10.8789,10.789,10.7109,10.5898,10.4687,10.3789,10.2383,10.0781,10.0312,9.9336,9.8281,9.8281,9.8008,9.7695,9.7695,9.7695,9.7695,9.7695,9.7695,9.7695,9.7695,9.7695,9.7695,9.7695,9.7695,9.7654,9.7437,9.721,9.6939,9.6669,9.6426,9.6288,9.6288,9.6288,9.6288,9.6288,9.5903,9.5557,9.5557,9.5134,9.4826,9.4826,9.4172,9.371,9.371,9.4027,9.4258,9.4258,9.4634,9.4672,9.4296,9.4258,9.4258,9.4258,9.3912,9.3864,9.4258,9.3095,9.2672,9.3018,9.1787,9.1595,9.2287,9.1941,9.1979,10.2811,10.4001,10.4495,10.631,10.5984,10.499,10.4217,10.3086,10.1289,9.8203,9.8125,9.8354,9.737,9.9247,10.2302,10.6299,10.9004,11.2209,11.6808,11.8188,11.921,12.0295,11.9985,11.9609,11.9609,11.8906,11.8398,11.8281,11.7817,11.7402,11.7403,11.6805,11.6495,11.6495,11.6495,11.6788,11.7392,11.6497,11.6009,11.5898,11.4883,11.4101,11.3281,11.2383,11.1484,11.0703,10.9687,10.8906,10.8086,10.7187,10.6406,10.5586,10.4687,10.3281,10.1797,10.1601,10.0586,9.914,9.9023,9.8515,9.7851,9.7734,9.7695,9.7695,9.7695,9.7695,9.7695,9.7695,9.7695,9.7695,9.7695,9.7695,9.7654,9.7437,9.723,9.6984,9.6676,9.6426,9.6288,9.6288,9.6288,9.6288,9.6288,9.6288,9.6288,9.6288,9.6288,9.6288,9.6288,9.498,9.4057,9.4057,9.472,9.5181,9.5181,9.5865,9.598,9.522,9.5181,9.5181,9.5181,9.4441,9.4403,9.5181,9.3633,9.3172,9.3864,9.2287,9.2287,9.3672,9.2979,9.3018,10.5695,10.7016,10.7491,10.8512,10.7106,10.4998,10.3515,10.0781,9.8242,9.6953,9.6836,9.6745,9.6129,9.8073,10.0985,10.4808,10.6988,11.0412,11.6489,11.699,11.7713,12.0497,12.0116,11.9609,11.9609,11.9492,11.9101,11.8398,11.7988,11.7706,11.7414,11.6805,11.6495,11.6495,11.6495,11.6788,11.7392,11.6497,11.6282,11.6797,11.5195,11.4414,11.4218,11.2617,11.1797,11.1601,11.0,10.9218,10.8984,10.8086,10.7304,10.6406,10.5586,10.4219,10.2617,10.1914,10.1015,9.9961,9.9258,9.8906,9.8672,9.7929,9.7695,9.7695,9.7695,9.7695,9.7695,9.7695,9.7695,9.7695,9.7695,9.7695,9.7654,9.7437,9.7354,9.7213,9.6695,9.6426,9.6288,9.6288,9.6288,9.6288,9.6288,9.6288,9.6288,9.6288,9.6288,9.6288,9.6288,9.6057,9.5865,9.5865,9.598,9.6057,9.6057,9.6211,9.6249,9.6095,9.6057,9.6057,9.6057,9.5942,9.5903,9.6057,9.5057,9.4643,9.4758,9.3749,9.3403,9.371,9.3557,9.3557,10.6892,10.8588,10.9297,10.9297,10.7383,10.4804,10.2187,9.9531,9.7109,9.4922,9.5195,9.5577,9.4724,9.6657,9.9189,10.1804,10.3986,10.7583,11.3883,11.4913,11.6392,12.0193,11.9882,11.9384,11.9384,11.8993,11.8486,11.8095,11.8011,11.7784,11.7689,11.7081,11.6679,11.6506,11.6707,11.6998,11.7397,11.7191,11.7,11.6992,11.5781,11.4883,11.4414,11.2187,11.1211,11.1093,10.9414,10.8593,10.8593,10.8203,10.75,10.6719,10.6289,10.5117,10.3515,10.3086,10.2109,10.0898,9.9961,9.9375,9.8867,9.7969,9.7695,9.7695,9.7695,9.7695,9.7695,9.7695,9.7695,9.7695,9.7695,9.7695,9.7695,9.7563,9.7717,9.771,9.7186,9.6989,9.6788,9.6365,9.6288,9.6288,9.6288,9.6288,9.6288,9.6288,9.6288,9.6288,9.6288,9.6288,9.6288,9.6288,9.6288,9.6288,9.6288,9.6288,9.6288,9.6288,9.6288,9.6288,9.6288,9.6288,9.6288,9.6288,9.5451,9.4989,9.4989,9.4143,9.3941,9.4373,9.4373,9.4634,10.7304,10.9101,11.0195,10.9492,10.7187,10.4297,10.0781,9.8554,9.6289,9.3242,9.3828,9.4644,9.3678,9.5288,9.7379,9.9191,10.1288,10.4809,11.0909,11.2811,11.5084,11.9316,11.9381,11.9094,11.9094,11.8502,11.8093,11.7898,11.8002,11.7917,11.781,11.731,11.6916,11.671,11.6898,11.7203,11.7488,11.779,11.7685,11.7304,11.6406,11.5586,11.4687,11.25,11.1093,11.0508,10.9218,10.8281,10.8008,10.8008,10.75,10.6719,10.6484,10.5508,10.4219,10.3984,10.3086,10.1719,10.0703,9.9844,9.9101,9.8047,9.7695,9.7695,9.7695,9.7695,9.7695,9.7695,9.7695,9.7695,9.7695,9.7695,9.7734,9.7848,9.8118,9.8231,9.7923,9.767,9.7326,9.6673,9.6442,9.6288,9.6288,9.6288,9.6288,9.6288,9.6288,9.6288,9.6288,9.6288,9.6288,9.6288,9.6288,9.6288,9.6288,9.6288,9.6288,9.6288,9.6288,9.6288,9.6288,9.6288,9.6288,9.6288,9.5634,9.5297,9.5297,9.4595,9.4595,9.5297,9.5297,9.5634,10.7109,10.8711,10.9414,10.9297,10.6797,10.3398,9.9922,9.7226,9.4883,9.3008,9.3359,9.3902,9.356,9.4358,9.6023,9.8997,10.0189,10.2804,10.9093,11.1196,11.3483,11.7214,11.8306,11.8698,11.8698,11.8899,11.8796,11.8015,11.8103,11.8003,11.7506,11.721,11.7081,11.7303,11.7104,11.729,11.7794,11.789,11.7997,11.8203,11.7304,11.6406,11.5586,11.4609,11.2812,11.0586,11.039,10.9492,10.8008,10.8008,10.75,10.6601,10.5898,10.5,10.4101,10.3281,10.289,10.25,10.0898,10.0195,9.9922,9.8242,9.7695,9.7695,9.7695,9.7695,9.7695,9.7695,9.7695,9.7695,9.7695,9.7695,9.7849,9.8377,9.8421,9.844,9.8933,9.8237,9.748,9.7403,9.6788,9.6288,9.6288,9.6288,9.6288,9.6288,9.6288,9.6288,9.6288,9.6288,9.6288,9.6288,9.6288,9.6288,9.6288,9.6288,9.6288,9.6288,9.6288,9.6288,9.6288,9.6288,9.6288,9.6288,9.6211,9.6172,9.6172,9.6095,9.6095,9.6172,9.6172,9.6211,10.4804,10.7109,10.8281,10.7304,10.5195,10.25,9.9023,9.664,9.4844,9.3633,9.3242,9.3203,9.3435,9.3785,9.4565,9.6163,9.708,9.9345,10.4413,10.6104,10.871,11.3787,11.5004,11.6111,11.7814,11.8014,11.8102,11.8102,11.82,11.8197,11.7981,11.7702,11.7501,11.7403,11.7501,11.7703,11.7895,11.8086,11.8195,11.8281,11.7383,11.6601,11.5703,11.4297,11.2617,11.0586,11.0,10.9101,10.8008,10.7383,10.6992,10.6601,10.5781,10.5,10.4219,10.3789,10.3398,10.2695,10.1484,10.0703,10.0117,9.8867,9.8125,9.7695,9.7695,9.7695,9.7695,9.7695,9.7695,9.7695,9.7695,9.7609,9.7795,9.8893,9.8977,9.9015,9.9625,9.939,9.875,9.7711,9.7673,9.7634,9.7096,9.7442,9.7788,9.7788,9.7365,9.7211,9.775,9.7365,9.7019,9.7019,9.6596,9.6288,9.6288,9.6749,9.7019,9.7019,9.7519,9.7557,9.7057,9.7019,9.6788,9.6326,9.6288,9.6288,9.6288,9.6288,9.6355,9.6506,9.7024,9.6985,10.1914,10.4492,10.6211,10.5,10.3203,10.1015,9.8008,9.6015,9.4648,9.4023,9.3357,9.299,9.3404,9.3432,9.3556,9.3964,9.4917,9.7009,10.0995,10.2709,10.5404,11.0514,11.1889,11.3412,11.6001,11.7011,11.78,11.8319,11.8281,11.8281,11.8281,11.8103,11.7914,11.7709,11.7784,11.7917,11.7992,11.8197,11.8281,11.8281,11.7695,11.6797,11.5781,11.4492,11.2695,11.0586,11.0,10.8984,10.789,10.7109,10.6601,10.6289,10.539,10.4609,10.3789,10.3789,10.3398,10.2812,10.1914,10.1211,10.0508,9.9375,9.8594,9.8047,9.7773,9.7695,9.7695,9.7695,9.7695,9.7773,9.8008,9.7996,9.8248,9.9647,9.9829,9.9852,10.0415,10.0287,9.976,9.8519,9.8557,9.8596,9.798,9.8404,9.8788,9.8788,9.8288,9.8096,9.8711,9.825,9.7865,9.7865,9.7134,9.6634,9.6634,9.7173,9.7596,9.7865,9.8442,9.8519,9.7904,9.7865,9.7634,9.7057,9.7057,9.7057,9.7057,9.7057,9.7114,9.7264,9.7898,9.7705,9.8594,10.1015,10.289,10.289,10.1015,9.8594,9.6914,9.5156,9.3906,9.3906,9.3685,9.3502,9.3507,9.3341,9.3194,9.3207,9.4407,9.6497,9.9943,10.2404,10.4917,10.7702,10.9616,11.1405,11.3411,11.6185,11.7988,11.8281,11.8281,11.8281,11.8281,11.8281,11.8281,11.8281,11.7999,11.7995,11.8281,11.8281,11.8281,11.8281,11.8281,11.7383,11.5781,11.5703,11.3789,11.0586,11.0586,10.9609,10.789,10.7109,10.6211,10.539,10.4609,10.3711,10.289,10.289,10.289,10.2812,10.1914,10.1601,10.1289,9.957,9.8984,9.8828,9.7969,9.7695,9.7695,9.7695,9.7695,9.789,9.875,9.8984,9.9371,10.0786,10.0983,10.0895,10.1578,10.0788,10.0106,10.0106,9.9375,9.8788,9.8788,9.8788,9.8788,9.8788,9.8788,9.8788,9.8788,9.8788,9.8788,9.8788,9.8019,9.748,9.748,9.7519,9.7865,9.8711,9.8788,9.8788,9.8788,9.8788,9.8788,9.875,9.875,9.875,9.875,9.875,9.8798,9.8759,9.8798,9.8336,9.3281,9.5664,9.7344,9.6172,9.6133,9.5937,9.4219,9.3867,9.3906,9.3906,9.3825,9.3731,9.3521,9.4407,9.5118,9.4946,9.6799,9.8608,9.9691,10.2491,10.5385,10.799,11.2586,11.5793,11.652,11.7482,11.8197,11.8281,11.8281,11.8281,11.8281,11.8281,11.8281,11.8281,11.8198,11.8198,11.8281,11.8281,11.8281,11.8281,11.7695,11.6797,11.5703,11.5117,11.3281,11.0586,11.0586,10.9609,10.789,10.6484,10.5703,10.539,10.3906,10.3086,10.289,10.289,10.289,10.289,10.2617,10.2109,10.1484,10.1015,10.039,9.9844,9.957,9.8633,9.7812,9.8437,9.8594,9.8749,9.942,9.9507,9.9615,10.0495,10.0479,10.0508,10.1289,10.1211,10.0789,10.0221,10.0289,10.0289,9.9798,10.0096,10.0519,10.0519,9.9981,9.9904,10.0404,9.9981,9.9683,9.9683,9.9452,9.9019,9.8442,9.8404,9.875,9.9644,10.0212,10.0289,9.9721,9.9683,9.9413,9.8788,9.8788,9.8788,9.8788,9.8788,9.8886,9.9081,9.8447,9.8022,8.9687,9.1992,9.3554,9.2773,9.3437,9.3867,9.2422,9.2773,9.3398,9.3398,9.359,9.3804,9.3951,9.4792,9.5417,9.5257,9.687,9.8349,9.9011,10.2099,10.5602,10.9186,11.3798,11.6714,11.6987,11.7806,11.8281,11.8281,11.8281,11.8281,11.8281,11.8281,11.8086,11.7812,11.8086,11.8281,11.8281,11.8281,11.8281,11.8281,11.7383,11.6601,11.5703,11.4492,11.2812,11.0586,11.0312,10.9297,0.0,10.6484,10.6015,10.5781,10.4101,10.3398,10.3398,10.3008,10.289,10.289,10.289,10.25,10.1992,10.1719,10.1015,10.0312,10.0186,9.94,9.8657,9.9204,9.9265,9.9341,10.0112,10.0114,10.0198,10.0902,10.0883,10.0796,10.1297,10.1384,10.1212,10.0712,10.0981,10.1087,10.0596,10.1019,10.1279,10.1279,10.0904,10.0712,10.1202,10.0904,10.0606,10.0606,10.0298,9.999,9.975,9.9442,9.9644,10.0481,10.1019,10.1096,10.0596,10.0606,10.0289,9.975,9.975,9.975,9.975,9.9442,9.9533,9.9961,9.8446,9.8106,0.0,8.9609,9.1133,9.1875,9.2187,9.2148,9.1367,9.1836,0.0,9.2578,9.3062,9.3708,9.4575,9.4582,9.4535,9.4707,9.54,9.6525,9.8277,10.16,10.5894,11.1315,11.358,11.5117,11.5781,11.7304,11.8281,11.8281,11.8281,11.8281,11.8281,11.8281,11.789,11.6992,11.7812,11.8203,11.8086,11.8203,11.8203,11.8086,11.7304,11.6484,11.5586,11.3906,11.2187,11.0586,10.9687,10.8789,10.789,10.7109,10.6719,10.6484,10.4883,10.4297,10.4101,10.3281,10.3008,10.289,10.289,10.289,10.289,10.1992,10.1211,10.0389,10.0218,9.9985,9.9897,9.9965,9.9767,9.9795,10.0597,10.0908,10.1097,10.1904,10.1912,10.1695,10.1695,10.1495,10.1289,10.1289,10.1299,10.1299,10.1299,10.1299,10.1289,10.1289,10.1279,10.1279,10.1279,10.1279,10.1279,10.1279,10.0596,10.0481,10.1202,10.0596,10.0404,10.1202,10.1279,10.1279,10.1279,10.1279,10.1279,10.1279,10.1279,10.1279,10.1279,10.0481,10.0481,10.1212,9.8788,9.8519,8.4414,0.0,8.7304,8.6836,8.8164,8.9726,0.0,9.0469,9.0976,9.2344,9.2694,9.3081,9.3941,9.4597,9.5449,9.6739,9.7676,9.8848,10.0605,10.5488,11.061,11.5189,11.6718,11.75,11.7695,11.8086,11.8281,11.8281,11.8281,11.8281,11.8281,11.8281,11.789,11.6992,11.7187,11.6992,11.6406,11.6992,11.6992,11.6289,11.6093,11.5586,11.4687,11.3008,11.1601,11.0586,10.9687,10.8789,10.789,10.7109,10.6719,10.6601,10.5586,10.4804,10.4219,10.3984,10.3515,10.289,10.289,10.3281,10.3906,10.3711,10.3008,10.2304,10.2184,10.1098,9.9994,10.0481,10.0513,10.0615,10.1311,10.1517,10.1487,10.152,10.1387,10.1382,10.1382,10.1289,10.1404,10.1608,10.1595,10.1595,10.1595,10.1595,10.152,10.1299,10.1279,10.1279,10.1279,10.1279,10.1279,10.1279,10.1087,10.1096,10.1279,10.0596,10.0404,10.1202,10.1279,10.1279,10.1279,10.1279,10.1279,10.1279,10.1279,10.1279,10.1279,10.1096,10.0789,10.0414,9.976,9.9336,8.289,8.457,8.6172,8.6094,8.7695,8.9336,8.9375,8.9726,9.0156,9.0703,9.1445,9.2265,9.3125,9.4336,9.5625,9.6953,9.8203,10.039,10.4609,10.8593,11.2812,11.7109,11.8008,11.8281,11.8281,11.8281,11.8281,11.8281,11.8281,11.8281,11.8281,11.789,11.7304,11.6406,11.6015,11.5781,11.5781,11.6211,11.6211,11.5703,11.5312,11.4883,11.4414,11.2695,11.1406,11.0586,10.9687,10.8789,10.8008,10.75,10.7304,10.7187,10.6406,10.5781,10.5312,10.4883,10.4492,10.4101,10.4101,10.4101,10.4101,10.3711,10.3281,10.289,10.2799,10.198,10.1081,10.1279,10.1312,10.1285,10.1486,10.1487,10.1495,10.1308,10.1279,10.1279,10.1279,10.1391,10.1503,10.1695,10.1802,10.1911,10.1911,10.1911,10.1788,10.1495,10.1504,10.1387,10.1308,10.1279,10.1279,10.1279,10.1279,10.1279,10.1279,10.0904,10.0789,10.1289,10.1712,10.1712,10.1279,10.1712,10.1712,10.1279,10.1279,10.1279,10.1279,10.0904,10.0712,10.0596,9.9865,9.9673,8.2461,8.4414,8.6523,8.6992,8.8554,8.9765,8.8906,8.9258,8.9648,8.9023,9.0078,9.1445,9.2578,9.4101,9.5586,9.6719,9.8398,10.1797,10.8203,11.0703,11.3398,11.7617,11.8203,11.8281,11.8281,11.8281,11.8281,11.8281,11.8281,11.8281,11.8281,11.75,11.6601,11.5703,11.4883,11.4804,11.5312,11.5508,11.5508,11.539,11.4804,11.4414,11.4218,11.25,11.1289,11.0508,10.9492,10.8711,10.8008,10.8008,10.8008,10.789,10.7187,10.6797,10.6601,10.5898,10.5586,10.5508,10.5508,10.4883,10.4101,10.3515,10.3203,10.3085,10.3002,10.2898,10.2717,10.239,10.2089,10.1715,10.1504,10.1398,10.1419,10.1384,10.1404,10.1404,10.1404,10.1482,10.1698,10.1808,10.2012,10.2209,10.2209,10.2209,10.208,10.1802,10.1786,10.171,10.149,10.1398,10.1398,10.1398,10.1411,10.1404,10.1404,10.1289,10.1279,10.1279,10.202,10.2097,10.1279,10.202,10.2097,10.1279,10.1279,10.1279,10.1279,10.0596,10.0596,10.1289,9.9827,9.9942,8.3203,8.5312,8.6992,8.5625,8.7656,8.9765,8.8906,8.8789,8.9062,8.9687,9.0,9.0937,9.3281,9.4531,9.5937,9.8242,10.0703,10.3711,10.7617,11.0312,11.3203,11.6797,11.789,11.8281,11.8281,11.8281,11.8281,11.8281,11.8281,11.8281,11.8281,11.75,11.6601,11.5781,11.4883,11.4218,11.3593,11.4297,11.4297,11.3593,11.4218,11.4101,11.3281,11.1601,11.0703,11.0508,10.8906,10.8086,10.8008,10.8008,10.8008,10.8008,10.789,10.7304,10.6719,10.6601,10.6093,10.5508,10.5508,10.4883,10.4297,10.4883,10.4609,10.4101,10.4803,10.449,10.3898,10.358,10.2788,10.2,10.1995,10.1984,10.1915,10.1686,10.1603,10.1603,10.1603,10.1695,10.1802,10.2308,10.2392,10.2407,10.2407,10.2407,10.2312,10.209,10.201,10.1994,10.199,10.1984,10.1984,10.1984,10.1806,10.1603,10.1603,10.1407,10.1279,10.1279,10.1394,10.1394,10.1279,10.1394,10.1394,10.1279,10.1279,10.1279,10.1279,10.1212,10.1212,10.1279,10.101,10.1096,8.2773,8.4804,8.6601,8.5781,8.8515,9.1289,9.0898,9.082,9.0781,9.0703,9.1445,9.2344,9.3047,9.5039,9.7539,10.0586,10.3281,10.6015,10.8984,11.1289,11.3711,11.6601,11.7383,11.7812,11.8281,11.8281,11.8281,11.8281,11.789,11.7617,11.7617,11.6406,11.5508,11.5117,11.4297,11.3593,11.3203,11.3593,11.3593,11.3203,11.3593,11.3593,11.3203,11.1914,11.1015,11.0508,10.9297,10.8398,10.8008,10.8008,10.8281,10.8711,10.8203,10.8008,10.8008,10.7617,10.7187,10.6797,10.6289,10.5898,10.5508,10.5508,10.5195,10.5,10.539,10.5195,10.4882,10.4791,10.3585,10.2308,10.2109,10.2115,10.2202,10.2494,10.262,10.262,10.262,10.2705,10.2794,10.2493,10.2606,10.2713,10.2713,10.2713,10.261,10.2397,10.2291,10.2293,10.209,10.2115,10.2115,10.2115,10.1995,10.1919,10.1715,10.1602,10.1692,10.1991,10.1597,10.151,10.202,10.1597,10.1279,10.1279,10.1279,10.1279,10.1279,10.1279,10.1279,10.1279,10.1279,10.1279,8.2539,8.4219,8.5937,8.6133,8.8984,9.1836,9.2461,9.2422,9.2226,9.1953,9.3125,9.3984,9.332,9.6015,9.9336,10.2383,10.5,10.75,11.0,11.1992,11.3984,11.6211,11.6797,11.7187,11.7695,11.8086,11.8203,11.8008,11.7383,11.6992,11.6992,11.539,11.4492,11.4492,11.3711,11.3203,11.3203,11.3203,11.3203,11.3203,11.3008,11.289,11.289,11.1797,11.0898,11.0195,10.9414,10.8593,10.8008,10.8008,10.8398,10.8906,10.8281,10.8398,10.8906,10.8203,10.8008,10.789,10.6992,10.6719,10.6601,10.6015,10.5781,10.5781,10.6015,10.5898,10.5781,10.5781,10.4518,10.3206,10.2897,10.2702,10.2807,10.3581,10.3802,10.3685,10.3491,10.3687,10.3583,10.2984,10.2917,10.3008,10.3203,10.3008,10.2809,10.261,10.2597,10.249,10.2291,10.2312,10.2312,10.2312,10.2191,10.2109,10.1698,10.17,10.1911,10.228,10.1712,10.1587,10.2289,10.1712,10.1279,10.1279,10.1279,10.1394,10.1587,10.1394,10.1394,10.1587,10.1394,10.1279,8.3281,8.4219,8.5195,8.6015,8.7617,8.9609,9.2031,9.1953,9.1836,9.3398,9.4453,9.5078,9.5039,9.7812,10.0703,10.2617,10.5,10.7304,10.9101,11.1601,11.3593,11.4609,11.6093,11.6718,11.6015,11.7383,11.8008,11.7187,11.6992,11.6992,11.6992,11.539,11.4492,11.4492,11.3711,11.3203,11.3203,11.3203,11.3203,11.3203,11.2383,11.1992,11.1914,11.0312,10.9492,10.9297,10.8515,10.8086,10.8008,10.8008,10.8008,10.8086,10.8008,10.8008,10.8086,10.8008,10.8008,10.789,10.6992,10.6719,10.6719,10.6601,10.6601,10.6797,10.7617,10.7304,10.6601,10.6601,10.6015,10.5312,10.5311,10.4685,10.421,10.4799,10.5007,10.4812,10.3911,10.3802,10.3919,10.3981,10.3398,10.3203,10.3984,10.3398,10.289,10.289,10.289,10.289,10.281,10.281,10.281,10.281,10.2608,10.2289,10.168,10.17,10.1602,10.1395,10.1279,10.1279,10.1394,10.1279,10.1279,10.1279,10.1279,10.1712,10.252,10.1712,10.1712,10.252,10.1712,10.1279,8.2695,8.4219,8.5781,8.6133,8.7461,8.9375,9.1992,9.3594,9.4844,9.6015,9.6953,9.7578,9.7578,9.9492,10.1719,10.3398,10.5781,10.8086,10.9883,11.1406,11.289,11.4297,11.5117,11.5508,11.5781,11.6289,11.6601,11.6289,11.6289,11.6015,11.5508,11.4804,11.4297,11.3711,11.3398,11.3203,11.3203,11.3203,11.3203,11.3203,11.2304,11.1914,11.1797,11.0117,10.9297,10.9297,10.8398,10.8008,10.8008,10.8008,10.8281,10.8789,10.8789,10.8515,10.8008,10.8008,10.8008,10.8008,10.7617,10.75,10.75,10.75,10.75,10.7617,10.789,10.7812,10.75,10.75,10.6914,10.6093,10.5586,10.5312,10.5195,10.5888,10.6119,10.6002,10.5689,10.5611,10.5303,10.4414,10.3906,10.3594,10.3398,10.3086,10.289,10.289,10.289,10.289,10.289,10.289,10.289,10.289,10.2699,10.2393,10.1984,10.1795,10.1602,10.1318,10.1279,10.1279,10.1279,10.1779,10.1904,10.1279,10.2404,10.2789,10.2597,10.2289,10.2289,10.2597,10.2289,10.2097,8.2304,8.3594,8.5117,8.5664,8.707,8.9062,9.1953,9.4414,9.6562,9.8164,9.8789,9.8984,9.8984,10.039,10.2109,10.3594,10.6211,10.8515,11.0,11.0898,11.1914,11.3086,11.3789,11.4218,11.4492,11.5312,11.5586,11.539,11.539,11.5117,11.4492,11.4492,11.4101,11.3203,11.3515,11.3515,11.3203,11.3203,11.3086,11.2812,11.1914,11.1484,11.1406,10.9687,10.8906,10.8906,10.8281,10.8008,10.8008,10.8008,10.8398,10.8906,10.8906,10.8515,10.8008,10.8008,10.8008,10.8008,10.8008,10.8008,10.8008,10.8008,10.8008,10.8008,10.8008,10.8008,10.8086,10.8281,10.8008,10.75,10.7187,10.6484,10.6093,10.6914,10.7109,10.6992,10.6797,10.6719,10.6289,10.4883,10.4414,10.3984,10.3398,10.3086,10.289,10.289,10.289,10.3008,10.3281,10.3086,10.289,10.289,10.2717,10.2512,10.2099,10.1894,10.1818,10.1712,10.152,10.1394,10.1712,10.2289,10.2404,10.2097,10.3289,10.3712,10.3405,10.3097,10.3097,10.3405,10.3097,10.2981,8.2304,8.2304,8.2734,8.4492,8.625,8.8437,9.1836,9.3984,9.6172,9.9609,9.9648,9.9023,9.9023,10.039,10.1914,10.2812,10.5781,10.8281,10.9218,11.0,11.0586,11.0586,11.2109,11.2812,11.1992,11.4218,11.539,11.4609,11.4492,11.4492,11.4492,11.4492,11.4101,11.3203,11.3984,11.4101,11.3203,11.3203,11.2812,11.1914,11.1015,11.0586,11.0508,10.8789,10.8008,10.8008,10.8008,10.8008,10.8008,10.8008,10.8008,10.8008,10.8008,10.8008,10.8008,10.8008,10.8008,10.8008,10.8008,10.8008,10.8008,10.8008,10.8008,10.8008,10.8008,10.8008,10.8203,10.9101,10.9297,10.9492,11.039,10.8711,10.6914,10.7812,10.8008,10.7812,10.6914,10.6719,10.6484,10.5703,10.4804,10.4219,10.4219,10.3515,10.289,10.289,10.289,10.3203,10.4101,10.3515,10.289,10.289,10.289,10.2706,10.2079,10.2115,10.2203,10.2588,10.1789,10.1712,10.2597,10.2597,10.2981,10.3905,10.3905,10.4289,10.5107,10.4289,10.4289,10.5107,10.4299,10.3905,8.2304,8.3633,8.5312,8.6445,8.8945,9.1639,9.3677,9.5614,9.7773,10.0586,10.1015,10.0586,10.0,10.0781,10.2109,10.3594,10.5195,10.6992,10.8984,10.9492,10.9883,11.0508,11.1093,11.1484,11.1914,11.2617,11.3203,11.3593,11.4218,11.4218,11.3593,11.4218,11.4101,11.3203,11.3515,11.3515,11.3203,11.3203,11.3086,11.2812,11.1289,11.0312,10.9609,10.8515,10.8008,10.8008,10.8008,10.8008,10.8008,10.8008,10.8008,10.8008,10.8008,10.8008,10.8008,10.8008,10.8008,10.8008,10.8008,10.8008,10.8008,10.8008,10.8008,10.8086,10.8711,10.8906,10.9101,11.0,11.0195,11.0312,11.0508,10.9609,10.8593,10.8906,10.8398,10.789,10.7695,10.7617,10.7383,10.6484,10.6093,10.5781,10.5195,10.4414,10.3984,10.4609,10.4219,10.4101,10.5,10.4414,10.3789,10.3789,10.3281,10.28,10.2392,10.221,10.23,10.2786,10.2489,10.2597,10.3482,10.3482,10.3597,10.3905,10.5097,10.5482,10.5107,10.4915,10.4915,10.5107,10.4915,10.4713,8.2617,8.4453,8.6562,8.8125,9.082,9.3669,9.5871,9.7497,9.9204,10.1508,10.1793,10.1484,10.1406,10.1992,10.3086,10.4492,10.5703,10.6992,10.8593,10.8789,10.8984,10.9492,11.0195,11.0781,11.1289,11.1992,11.2617,11.3203,11.3711,11.3789,11.3203,11.3984,11.4101,11.3203,11.3515,11.3593,11.3203,11.3203,11.3008,11.2695,11.1601,11.0703,10.9804,10.8593,10.8008,10.8008,10.8008,10.8008,10.8008,10.8008,10.8008,10.8008,10.8398,10.8281,10.8008,10.8398,10.8281,10.8008,10.8008,10.8008,10.8008,10.8008,10.8008,10.8086,10.8593,10.8984,10.9492,11.039,11.0781,11.1211,11.1484,11.0703,10.9687,10.9414,10.8593,10.8008,10.8008,10.8008,10.7695,10.6914,10.6719,10.6406,10.5586,10.5117,10.4883,10.539,10.5312,10.5312,10.5508,10.5312,10.4883,10.4297,10.3711,10.3111,10.241,10.2197,10.2495,10.3511,10.3013,10.3486,10.5092,10.4705,10.4482,10.4905,10.5905,10.6087,10.5597,10.5597,10.5597,10.5597,10.5597,10.5515,8.3203,8.5,8.6953,8.957,9.2226,9.4994,9.8018,9.9324,10.0417,10.2012,10.2084,10.1991,10.289,10.3711,10.4609,10.5586,10.6914,10.789,10.8086,10.8086,10.8008,10.8008,10.9492,11.0508,11.0586,11.2109,11.3086,11.3203,11.3203,11.3203,11.3203,11.3984,11.3984,11.3203,11.3984,11.3984,11.3203,11.3203,11.2812,11.1992,11.1914,11.1484,11.0703,10.8906,10.8086,10.8008,10.8008,10.8008,10.8008,10.8008,10.8008,10.8086,10.8984,10.8789,10.8203,10.8984,10.8789,10.8086,10.8008,10.8008,10.8008,10.8086,10.8086,10.8086,10.8281,10.8906,10.9687,11.0586,11.1406,11.2187,11.3008,11.1914,11.039,10.9609,10.8711,10.8008,10.8008,10.8008,10.7812,10.6992,10.6797,10.6601,10.5898,10.5703,10.5586,10.5586,10.6289,10.6601,10.5781,10.6289,10.6093,10.4609,10.4414,10.3804,10.2491,10.2395,10.3016,10.44,10.3692,10.4396,10.7119,10.5896,10.5514,10.6399,10.6387,10.6395,10.6395,10.6395,10.6395,10.6405,10.6407,10.609,8.3945,8.5898,8.8008,9.1211,9.436,9.7007,9.8307,9.928,10.0185,10.1317,10.2505,10.3399,10.3788,10.4609,10.5703,10.7187,10.7187,10.75,10.8789,10.8398,10.8008,10.8008,10.8906,10.9804,11.0508,11.1601,11.25,11.3086,11.3203,11.3203,11.3203,11.3398,11.3398,11.3203,11.3398,11.3398,11.3203,11.3203,11.3086,11.289,11.2187,11.1797,11.1601,10.9804,10.8593,10.8008,10.8008,10.8008,10.8008,10.8008,10.8008,10.8086,10.8984,10.9218,10.8984,10.9218,10.9218,10.8906,10.8203,10.8008,10.8086,10.8789,10.8984,10.9297,11.0586,11.1211,11.1484,11.2383,11.2812,11.3008,11.3203,11.1914,11.0586,11.039,10.9101,10.8008,10.8008,10.8008,10.789,10.7812,10.7695,10.7695,10.75,10.6914,10.6406,10.6406,10.7187,10.7695,10.75,10.6992,10.6601,10.6211,10.5586,10.5116,10.4788,10.4607,10.4918,10.5811,10.5491,10.5905,10.7086,10.6099,10.5788,10.6708,10.6497,10.6395,10.6395,10.6395,10.6395,10.6405,10.6614,10.6602,8.4062,8.6758,8.9726,9.3984,9.6539,9.8034,9.8029,9.9227,10.0489,10.1109,10.2684,10.4202,10.4687,10.5508,10.6601,10.8281,10.8203,10.8398,10.9687,10.9492,10.9218,10.9218,11.0,11.0703,11.1211,11.1992,11.2695,11.3203,11.3203,11.3203,11.3203,11.3203,11.3203,11.3203,11.3203,11.3203,11.3203,11.3203,11.3203,11.3203,11.2695,11.2304,11.1797,11.0117,10.8789,10.8008,10.8008,10.8008,10.8008,10.8008,10.8203,10.8711,10.9101,10.9609,10.9883,10.9492,10.9297,10.9218,10.8281,10.8281,10.8711,10.9218,10.9883,11.0586,11.1093,11.1914,11.25,11.2617,11.289,11.3203,11.3203,11.2187,11.1211,11.1211,10.9609,10.8008,10.8008,10.8008,10.8008,10.8008,10.8008,10.8008,10.8008,10.8008,10.8086,10.8515,10.8593,10.8593,10.8593,10.789,10.7187,10.6719,10.6289,10.5897,10.541,10.5211,10.5488,10.6307,10.6193,10.6608,10.7504,10.7295,10.6986,10.6812,10.6701,10.6497,10.6395,10.6395,10.6497,10.6578,10.6702,10.6698,8.3789,8.75,9.1562,9.6328,9.7992,9.8336,9.7634,9.9149,10.0806,10.1016,10.2792,10.4607,10.5508,10.6406,10.75,10.9218,10.9414,10.9687,11.0703,11.0703,11.0586,11.0586,11.1406,11.1914,11.1914,11.2695,11.3203,11.3203,11.3203,11.3203,11.3203,11.3203,11.3203,11.3203,11.3203,11.3203,11.3203,11.3203,11.3203,11.3203,11.3203,11.2695,11.1914,11.039,10.9218,10.8203,10.8203,10.8086,10.8008,10.8203,10.8593,10.9297,10.9492,11.0117,11.0703,10.9687,10.9414,10.9414,10.8398,10.8593,10.9297,10.9492,11.0703,11.1992,11.1406,11.2304,11.3281,11.2617,11.2812,11.3203,11.3008,11.2383,11.1914,11.1718,11.0,10.8398,10.8398,10.8398,10.8398,10.8398,10.8398,10.8398,10.8281,10.8906,10.9804,11.0508,10.9883,10.9297,10.9297,10.8515,10.7695,10.6992,10.6914,10.6597,10.5683,10.5597,10.5912,10.6614,10.6693,10.7116,10.8007,10.8487,10.8196,10.6983,10.6996,10.6787,10.6395,10.6419,10.6599,10.6812,10.6907,10.6787,8.3047,8.7929,9.2969,9.5937,9.7265,9.7811,9.7693,9.9058,10.0385,10.0388,10.2902,10.5306,10.6288,10.7187,10.8398,11.0117,10.9804,10.9883,11.1484,11.1093,11.0586,11.0586,11.1406,11.1914,11.1914,11.2695,11.3203,11.3203,11.3203,11.3203,11.3203,11.3203,11.3203,11.3203,11.3203,11.3203,11.3203,11.3203,11.3203,11.3203,11.3203,11.2695,11.1914,11.1718,11.0703,10.9101,10.9101,10.8711,10.8086,10.8789,10.9218,10.9414,11.0117,11.1015,11.1484,10.9883,10.9804,11.0195,10.8593,10.8593,10.9414,11.0195,11.1601,11.3086,11.3789,11.4101,11.4297,11.4218,11.3711,11.3008,11.2304,11.1992,11.1718,11.1015,11.0508,11.0312,11.0312,11.0312,11.0312,11.0312,11.0312,11.0,10.9297,10.9804,11.0508,11.0586,10.9883,10.9297,10.9297,10.8515,10.8008,10.7812,10.7812,10.7812,10.7615,10.7615,10.7693,10.7811,10.7811,10.789,10.8008,10.8085,10.7905,10.7496,10.7804,10.7384,10.6405,10.6611,10.6789,10.6789,10.7281,10.7515,8.4531,8.8398,9.1992,9.5586,9.7109,9.7695,9.7695,9.9414,10.1015,10.1015,10.2885,10.4714,10.5195,10.6797,10.8281,10.8984,10.9218,10.9883,11.1718,11.1093,11.1015,11.1914,11.1992,11.1914,11.1914,11.2187,11.25,11.25,11.25,11.2695,11.3203,11.3203,11.3203,11.3203,11.3203,11.3398,11.3906,11.3398,11.3008,11.25,11.3008,11.2695,11.1914,11.2383,11.1718,11.0,11.0,10.9804,10.9492,10.9883,11.0312,11.0703,11.0586,11.1406,11.2383,11.0703,11.0312,11.0508,10.9687,10.9687,11.0195,11.1015,11.25,11.3984,11.4414,11.4492,11.4492,11.4492,11.3906,11.3086,11.2695,11.2617,11.25,11.2109,11.2109,11.2109,11.2109,11.1289,11.0586,11.0586,11.0586,11.0586,11.0703,11.1093,11.1289,11.1289,11.0586,10.9883,10.9414,10.8515,10.8008,10.8008,10.8008,10.8008,10.8008,10.8008,10.8008,10.8008,10.8008,10.8008,10.8008,10.8515,10.8388,10.7595,10.7617,10.7301,10.6593,10.6718,10.6885,10.7015,10.7402,10.7708,8.4765,8.7422,8.9765,9.4101,9.5976,9.6836,9.7304,9.9219,10.1015,10.1211,10.2695,10.3906,10.3906,10.6015,10.7695,10.8008,10.8711,10.9804,11.1406,11.1015,11.1211,11.2695,11.2304,11.1992,11.2187,11.2187,11.2187,11.2187,11.2187,11.25,11.3203,11.3398,11.3515,11.3515,11.3711,11.4218,11.4804,11.3984,11.3086,11.2187,11.289,11.2695,11.1914,11.2617,11.2187,11.0898,11.0898,11.0781,11.0586,11.0781,11.1406,11.2109,11.1289,11.1914,11.3008,11.1211,11.0703,11.0898,11.0703,11.0703,11.1015,11.1718,11.3086,11.4492,11.4492,11.4492,11.4492,11.4492,11.3906,11.3086,11.289,11.3008,11.3086,11.289,11.3008,11.3203,11.3203,11.2187,11.1211,11.1015,11.1093,11.1289,11.1484,11.1914,11.2109,11.1601,11.1015,11.0312,10.9414,10.8515,10.8008,10.8008,10.8008,10.8008,10.8008,10.8008,10.8008,10.8008,10.8008,10.8008,10.8008,10.8593,10.8588,10.7717,10.7413,10.7099,10.6805,10.7103,10.7217,10.7213,10.739,10.7612,8.1836,8.3828,8.6211,9.0508,9.2851,9.4531,9.6172,9.789,9.9375,10.0195,10.1797,10.3008,10.3008,10.5,10.6992,10.789,10.8711,10.9609,11.0508,11.0586,11.0898,11.1914,11.1914,11.2187,11.3086,11.3086,11.3086,11.3086,11.3086,11.3203,11.3203,11.3984,11.4414,11.4414,11.5195,11.5586,11.5703,11.4883,11.3984,11.3086,11.3203,11.2695,11.1914,11.1914,11.1914,11.1797,11.1797,11.1406,11.0703,11.1484,11.2304,11.3008,11.2187,11.2383,11.3008,11.1211,11.1093,11.1718,11.0898,11.1093,11.1797,11.1914,11.3086,11.4492,11.4492,11.4492,11.4492,11.4492,11.3906,11.3008,11.2187,11.2617,11.3008,11.2187,11.2617,11.3203,11.3203,11.3086,11.2812,11.1992,11.25,11.2617,11.0898,11.1992,11.2617,11.0898,11.0586,11.0312,10.9414,10.8515,10.8008,10.8008,10.8008,10.8008,10.8008,10.8008,10.8008,10.8008,10.8008,10.8008,10.8008,10.8008,10.8008,10.8007,10.7682,10.7282,10.6812,10.7907,10.8014,10.7207,10.7179,10.7398,8.1758,8.3554,8.5664,8.8828,9.0937,9.2539,9.3711,9.6172,9.8398,9.9297,10.0898,10.2187,10.2812,10.5,10.6601,10.6406,10.7617,10.8984,11.039,11.0117,11.0508,11.25,11.2187,11.1989,11.211,11.2298,11.2301,11.2108,11.2298,11.2617,11.3203,11.3984,11.4492,11.4492,11.5312,11.5703,11.5781,11.5508,11.4609,11.3203,11.3203,11.25,11.1093,11.2187,11.2109,11.1093,11.1718,11.1992,11.2304,11.2617,11.289,11.3203,11.289,11.289,11.3086,11.25,11.2109,11.1914,11.2187,11.25,11.2695,11.2695,11.3515,11.4492,11.4492,11.4101,11.3789,11.4297,11.3906,11.3086,11.2812,11.3008,11.3086,11.2812,11.3008,11.3008,11.25,11.2383,11.2109,11.1211,11.1797,11.2187,11.1484,11.1992,11.1992,11.0781,11.0117,10.9492,10.8593,10.8203,10.8008,10.8008,10.8008,10.8008,10.8008,10.8008,10.8008,10.8008,10.8008,10.8008,10.8008,10.8008,10.7886,10.7692,10.8202,10.799,10.7085,10.751,10.7382,10.6905,10.7121,10.7296,8.1054,8.25,8.4297,8.7148,8.8711,9.0117,9.2148,9.457,9.6836,9.8281,9.9961,10.1406,10.2304,10.4297,10.5898,10.5898,10.7109,10.8515,11.0,10.9687,11.0117,11.2109,11.1797,11.1598,11.1989,11.1985,11.1906,11.1896,11.2211,11.2499,11.2996,11.4217,11.5195,11.5781,11.6289,11.6484,11.6211,11.5898,11.5117,11.3593,11.3008,11.2187,11.1093,11.1914,11.1914,11.1093,11.1289,11.1992,11.2812,11.2812,11.289,11.3203,11.3203,11.3203,11.3203,11.3203,11.2812,11.2383,11.3008,11.3203,11.3203,11.3203,11.3593,11.4101,11.4101,11.3711,11.3281,11.3906,11.3593,11.3203,11.3203,11.3008,11.2812,11.3086,11.2812,11.2187,11.1601,11.1718,11.1601,11.0781,11.1093,11.1406,11.1093,11.1289,11.1093,10.9883,10.9492,10.8984,10.8086,10.8008,10.8086,10.8398,10.8203,10.8086,10.8398,10.8203,10.8008,10.8008,10.8008,10.8086,10.8398,10.8398,10.8394,10.8198,10.871,10.849,10.7591,10.7499,10.7411,10.72,10.7016,10.6885,0.0,0.0,0.0,8.5234,8.6133,8.7265,9.1406,9.3086,9.4492,9.707,9.8945,10.039,10.1406,10.3008,10.4687,10.6406,10.7383,10.8281,10.9218,10.9297,10.9687,11.0508,11.0703,11.1289,11.3007,11.2383,11.21,11.271,11.299,11.2996,11.2708,11.4593,11.6484,11.8203,11.8281,11.789,11.6992,11.6211,11.539,11.4492,11.2695,11.1914,11.1797,11.1015,11.1093,11.1797,11.1015,11.1093,11.1914,11.1914,11.2383,11.3203,11.3203,11.3203,11.3203,11.3203,11.3203,11.3203,11.3203,11.3203,11.3203,11.3203,11.3203,11.3203,11.3203,11.3203,11.3203,11.3203,11.3203,11.3203,11.3203,11.25,11.2109,11.289,11.1797,11.0586,11.0586,11.1211,11.1601,11.0703,11.0586,11.0312,10.9492,11.0,11.0,10.8281,10.8711,10.8984,10.8086,10.8008,10.8398,10.9218,10.8515,10.8398,10.9218,10.8515,10.8008,10.8008,10.8008,10.8398,10.9297,10.9297,10.9297,10.9297,10.9017,10.8682,10.8393,10.8204,10.809,10.809,10.6989,10.651,7.9805,0.0,0.0,0.0,0.0,0.0,8.6758,8.8633,9.1054,9.4297,9.5859,9.7422,10.0195,10.1601,10.289,10.4609,10.6093,10.7812,10.9883,11.0195,11.0586,11.1406,11.2109,11.2301,11.1982,11.2491,11.271,11.2408,11.2682,11.2702,11.239,11.4291,11.6302,11.8203,11.8281,11.789,11.6992,11.6211,11.5312,11.4492,11.2695,11.1601,11.1015,11.1406,11.1289,11.0898,11.0703,11.1093,11.1914,11.1914,11.1992,11.2304,11.3008,11.3203,11.3203,11.3203,11.3203,11.3203,11.3203,11.3593,11.3984,11.3398,11.3593,11.3984,11.3398,11.3203,11.3203,11.3203,11.3203,11.3086,11.2383,11.2109,11.1797,11.1406,11.1015,11.039,10.9804,10.9804,10.9804,10.8906,10.9687,11.0312,10.9492,11.0,11.0195,10.9101,10.8593,10.8281,10.8008,10.8593,10.8984,10.9297,10.9101,10.8984,10.9297,10.8515,10.8281,10.8906,10.8906,10.9297,11.0195,10.9609,10.9213,10.9011,10.8315,10.7714,10.7316,10.7795,10.8316,10.8694,10.7785,10.7713,8.039,8.1523,8.2851,8.2851,0.0,0.0,8.5742,8.7383,8.9609,9.2695,9.4648,9.6445,9.8789,9.9922,10.1211,10.3281,10.4804,10.6601,10.9218,10.9492,11.0,11.1211,11.1797,11.2107,11.2194,11.2396,11.2383,11.2303,11.2408,11.2817,11.3485,11.5001,11.659,11.8203,11.8281,11.789,11.6992,11.6211,11.5312,11.4492,11.2695,11.1601,11.1093,11.1289,11.1093,11.0586,11.0586,11.0898,11.1406,11.1797,11.1914,11.1992,11.289,11.3203,11.3203,11.3203,11.3203,11.3203,11.3203,11.3515,11.3906,11.3398,11.3515,11.3906,11.3398,11.3203,11.3203,11.3203,11.3203,11.3008,11.2109,11.1601,11.1211,11.0703,11.0,10.9492,10.9297,10.8984,10.8593,10.8086,10.8789,10.9414,10.8789,10.9218,10.9297,10.8789,10.8593,10.8398,10.8008,10.8789,10.9414,10.9804,10.9218,10.9101,10.9804,10.8711,10.8398,10.9218,10.9297,10.9883,11.1093,11.0703,11.0114,10.9615,10.8987,10.8195,10.7308,10.7502,10.7813,10.8406,10.8598,10.879,8.1328,8.25,8.3711,8.3633,8.3906,0.0,8.6484,8.7773,8.9219,9.1562,9.3945,9.5937,9.6953,9.7929,9.9336,10.1719,10.3008,10.4804,10.7617,10.8086,10.8711,11.0312,11.0586,11.1289,11.2812,11.2108,11.1815,11.2287,11.2395,11.3204,11.5215,11.6094,11.7095,11.8281,11.8281,11.7812,11.6914,11.6093,11.5312,11.4297,11.2695,11.1914,11.1914,11.1093,11.0703,11.0586,11.0586,11.0586,11.0703,11.1406,11.1797,11.1992,11.289,11.3281,11.3281,11.3203,11.3281,11.3281,11.3203,11.3203,11.3203,11.3203,11.3203,11.3203,11.3203,11.3203,11.3203,11.3203,11.3086,11.289,11.1992,11.1093,11.039,11.0312,10.9101,10.8203,10.8984,10.8515,10.8008,10.8008,10.8086,10.8086,10.8008,10.8086,10.8086,10.8008,10.8711,10.8906,10.8086,10.8789,10.9609,11.039,10.9101,10.8789,11.0312,10.8906,10.8398,10.9218,10.9297,11.0117,11.1797,11.1797,11.1406,11.0586,11.0112,10.9311,10.7978,10.7509,10.7513,10.7982,10.9483,10.979,8.3281,8.3867,8.4492,8.3789,8.5664,0.0,8.3984,8.5625,8.789,8.8398,8.9414,9.0898,9.3164,9.4883,9.6094,9.6601,9.914,10.2695,10.7304,10.8593,10.9218,10.9492,11.0781,11.1484,11.1093,11.1913,11.2404,11.2287,11.2692,11.3592,11.4879,11.5999,11.7097,11.8281,11.8281,11.7617,11.6015,11.5781,11.5,11.3398,11.2383,11.1914,11.1914,11.1718,11.1289,11.0586,11.0586,11.0586,11.0586,11.0781,11.1289,11.1992,11.289,11.3593,11.4218,11.3515,11.3593,11.4101,11.3398,11.3203,11.3203,11.3203,11.3203,11.3203,11.3203,11.3203,11.3203,11.3203,11.2695,11.1992,11.1093,11.0195,10.9414,10.8711,10.8203,10.8008,10.8203,10.8086,10.8008,10.8008,10.8593,10.8789,10.8086,10.8593,10.8789,10.8086,10.8086,10.8203,10.8008,10.8789,10.9414,10.9492,10.9218,10.9218,10.9492,10.8593,10.8398,10.9218,10.9297,11.0117,11.1797,11.1211,11.0781,11.0586,10.9018,10.7995,10.7689,10.9191,10.9784,10.9713,10.9983,11.0098,8.4569,8.4883,8.5429,8.5,8.6172,0.0,0.0,8.625,8.7734,8.8554,8.8711,8.9492,9.2109,9.2969,9.3828,9.5586,9.8008,10.0898,10.4297,10.5898,10.7187,10.8515,10.9414,11.0312,11.1211,11.1591,11.2085,11.2686,11.3413,11.4419,11.5685,11.6298,11.6902,11.7617,11.7187,11.6406,11.5195,11.5117,11.4492,11.3203,11.2812,11.2304,11.1914,11.1914,11.1406,11.0586,11.1093,11.1211,11.1289,11.1718,11.1914,11.1992,11.289,11.3515,11.3906,11.3789,11.3789,11.3906,11.3789,11.3593,11.3203,11.3203,11.3203,11.3203,11.3203,11.3203,11.3086,11.2695,11.2187,11.1601,11.0312,10.9609,10.9101,10.8203,10.8008,10.8008,10.8008,10.8008,10.8008,10.8008,10.8398,10.8515,10.8086,10.8398,10.8515,10.8086,10.8398,10.8515,10.8086,10.8789,10.9297,10.9297,10.8906,10.8789,10.9297,10.8515,10.8398,10.9218,10.9297,11.0117,11.1797,11.1484,11.1015,11.0586,10.8817,10.7689,10.7593,10.8992,10.9785,10.9782,11.0118,11.0224,8.6378,8.6626,8.7172,8.6665,8.7057,8.7447,0.0,0.0,0.0,8.9058,8.8903,8.9255,9.125,9.1328,9.2031,9.5,9.7187,9.9062,10.0586,10.2304,10.4297,10.6719,10.7304,10.8281,11.0508,11.0311,11.0804,11.2583,11.3413,11.4407,11.6016,11.6597,11.6918,11.6797,11.6211,11.5508,11.4492,11.4492,11.4101,11.3203,11.3203,11.2812,11.2187,11.2187,11.1718,11.0898,11.1601,11.1797,11.1718,11.2383,11.2304,11.1797,11.2812,11.3203,11.3281,11.3984,11.3906,11.3515,11.4101,11.3789,11.3203,11.3203,11.3203,11.3203,11.3203,11.3086,11.2812,11.2109,11.1718,11.1093,10.9687,10.9218,10.8906,10.8203,10.8008,10.8008,10.8008,10.8008,10.8008,10.8008,10.8008,10.8008,10.8008,10.8008,10.8008,10.8008,10.8593,10.8789,10.8086,10.8789,10.9218,10.9101,10.8593,10.8515,10.8984,10.8398,10.8398,10.9218,10.9297,11.0117,11.1797,11.1718,11.1211,11.039,10.8789,10.7883,10.7705,10.8498,10.8987,10.9306,10.9793,11.001,9.0197,9.0594,9.0707,8.8383,9.0112,9.1019,8.5786,0.0,8.9508,8.6829,0.0,8.8354,8.8124,0.0,0.0,9.1719,9.4648,9.7109,9.8008,9.9648,10.1406,10.3281,10.4804,10.5898,10.6211,10.6413,10.782,11.1005,11.1383,11.2303,11.4185,11.6698,11.7382,11.6015,11.6484,11.6093,11.4492,11.4492,11.4101,11.3203,11.3203,11.3086,11.3086,11.3086,11.2617,11.1797,11.1914,11.1484,11.0781,11.0898,11.0781,11.0898,11.2617,11.3203,11.3203,11.3281,11.3789,11.4297,11.3593,11.3281,11.3203,11.3203,11.3203,11.3203,11.3203,11.2695,11.1992,11.1914,11.0781,10.9492,10.9414,10.8711,10.8086,10.8008,10.8008,10.8008,10.8008,10.8008,10.8008,10.8008,10.8008,10.8008,10.8008,10.8008,10.8008,10.8008,10.8086,10.8086,10.8008,10.8789,10.8984,10.8203,10.8789,10.8906,10.8203,10.8086,10.8398,10.9218,10.9297,11.0117,11.1797,11.1211,11.0312,10.9492,10.8515,10.8007,10.8006,10.8615,10.8987,10.9314,10.9382,10.9296,9.0791,9.0867,9.0872,8.9796,9.0232,9.0159,8.7163,8.7478,8.8204,8.747,0.0,0.0,0.0,0.0,0.0,0.0,9.414,9.6054,9.6875,9.7617,9.9101,10.1797,10.2812,10.3591,10.4419,10.499,10.6384,10.8801,10.9514,11.0888,11.3415,11.4685,11.5312,11.5117,11.4883,11.441,11.3519,11.3519,11.3216,11.2709,11.2789,11.2894,11.2895,11.3082,11.3008,11.2695,11.2695,11.2383,11.2109,11.1601,11.1406,11.1406,11.2187,11.2383,11.2617,11.3593,11.3906,11.3789,11.3906,11.3593,11.3203,11.3203,11.289,11.2383,11.2383,11.1797,11.1015,11.0508,10.9883,10.9218,10.8711,10.8281,10.8008,10.8008,10.8008,10.8008,10.8008,10.8008,10.8008,10.8008,10.8008,10.8008,10.8008,10.8008,10.8008,10.8008,10.8008,10.8008,10.8008,10.8281,10.8398,10.8008,10.8281,10.8398,10.8008,10.8008,10.8203,10.8515,10.9492,11.039,11.1093,11.0781,11.0195,10.9297,10.8398,10.8008,10.8008,10.8312,10.8581,10.9087,10.892,10.8788,9.1984,9.1966,9.1927,9.0979,9.0281,8.9349,8.7624,8.7425,8.7691,8.7851,8.7646,0.0,0.0,0.0,9.0273,9.289,0.0,9.5586,9.6679,9.664,9.7344,9.957,10.0312,10.1206,10.2993,10.3192,10.4205,10.6501,10.6985,10.8504,11.1601,11.25,11.3086,11.3789,11.3512,11.3215,11.2708,11.2586,11.2489,11.231,11.2493,11.2586,11.271,11.2982,11.3082,11.3203,11.3203,11.3203,11.3086,11.2304,11.1914,11.1914,11.1914,11.1914,11.2109,11.3593,11.3711,11.3281,11.3906,11.3711,11.3203,11.289,11.2383,11.1914,11.1601,11.0898,11.0117,10.9492,10.9101,10.8789,10.8203,10.8008,10.8008,10.8008,10.8008,10.8008,10.8008,10.8008,10.8008,10.8008,10.8008,10.8008,10.8008,10.8008,10.8008,10.8008,10.8008,10.8008,10.8008,10.8203,10.8281,10.8008,10.8203,10.8281,10.8008,10.8008,10.8203,10.8711,11.0117,11.1015,11.1015,11.0703,11.0195,10.9297,10.8398,10.8008,10.8008,10.8008,10.8196,10.8611,10.838,10.8279,9.5102,9.5487,9.5324,9.2023,9.1176,9.006,8.5942,8.7473,8.9175,8.7017,8.9297,9.1549,9.1025,9.1077,9.207,9.4687,9.5156,0.0,0.0,9.6992,9.6211,9.5508,9.6836,9.8828,10.1406,10.0005,10.0383,10.3984,10.3285,10.4294,10.8007,11.0586,11.1992,11.1992,11.3317,11.361,11.2705,11.2408,11.2316,11.2305,11.2316,11.2412,11.2705,11.271,11.2889,11.3203,11.3203,11.3203,11.3086,11.2304,11.1914,11.1914,11.1914,11.1914,11.1992,11.289,11.3203,11.3203,11.3203,11.3203,11.3086,11.2187,11.1914,11.1718,11.0898,11.0,10.9297,10.9297,10.8711,10.8008,10.8008,10.8008,10.8008,10.8008,10.8008,10.8008,10.8008,10.8008,10.8008,10.8008,10.8008,10.8008,10.8008,10.8008,10.8008,10.8008,10.8008,10.8008,10.8008,10.8711,10.8906,10.8086,10.8789,10.8906,10.8086,10.8008,10.8711,11.039,11.1406,11.1914,11.1914,11.1015,11.0195,10.9297,10.8398,10.8008,10.8008,10.8008,10.8008,10.8007,10.7797,10.7888,9.5788,9.6442,9.6557,9.4287,9.2441,9.0364,8.7248,8.7863,8.8603,8.6875,8.9393,9.1537,9.0355,9.1232,9.2656,9.4101,9.4804,9.539,0.0,9.4804,9.4258,9.5117,9.6211,9.7265,9.8125,9.8121,9.8549,9.9804,10.109,10.3003,10.539,10.789,10.9804,11.1015,11.2104,11.2584,11.2708,11.2105,11.1693,11.141,11.1108,11.1286,11.1888,11.2117,11.2182,11.2383,11.289,11.289,11.2304,11.1992,11.2187,11.2695,11.2109,11.2304,11.2812,11.3086,11.3203,11.3203,11.3203,11.2812,11.2304,11.1992,11.1484,11.0898,11.0,10.9101,10.8398,10.8398,10.8203,10.8008,10.8008,10.8008,10.8008,10.8008,10.8008,10.8008,10.8008,10.8008,10.8008,10.8008,10.8008,10.8008,10.8008,10.8008,10.8008,10.8008,10.8008,10.8008,10.8008,10.8281,10.8281,10.8008,10.8281,10.8281,10.8008,10.8008,10.8711,11.0508,11.0312,11.039,11.1015,11.0195,10.9297,10.8515,10.8203,10.8008,10.8008,10.8008,10.8008,10.8008,10.7885,10.7986,9.7057,9.7557,9.7634,9.6259,9.4441,9.2287,8.9402,8.9633,9.0026,8.8473,9.0313,9.22,9.2164,9.2766,9.3547,9.4407,9.482,9.4876,0.0,9.3594,9.3594,9.5039,9.5703,9.6289,9.6875,9.7148,9.7383,9.7695,9.8984,10.0819,10.2996,10.5299,10.7409,10.9519,11.0902,11.1689,11.1807,11.1513,11.11,11.0504,11.0204,11.0499,11.1498,11.1686,11.1987,11.2383,11.3008,11.289,11.2383,11.2383,11.2695,11.3086,11.2617,11.2695,11.3203,11.3203,11.3008,11.2695,11.2695,11.2187,11.1406,11.1093,11.0586,11.0,10.9101,10.8398,10.8008,10.8008,10.8008,10.8008,10.8008,10.8008,10.8008,10.8008,10.8008,10.8008,10.8008,10.8008,10.8008,10.8008,10.8008,10.8008,10.8008,10.8008,10.8008,10.8008,10.8008,10.8008,10.8008,10.8008,10.8008,10.8008,10.8008,10.8008,10.8008,10.8008,10.8711,11.0508,10.9804,10.9804,11.1015,10.9883,10.9218,10.8906,10.8593,10.8515,10.8515,10.8515,10.8281,10.8008,10.8008,10.8008]}]]